<?xml version="1.0" encoding="UTF-8" standalone="yes"?>
<gpx
 xmlns="http://www.topografix.com/GPX/1/1"
 creator="OziExplorer Version 3956f - http://www.oziexplorer.com"
 version="1.1"
 xmlns:xsi="http://www.w3.org/2001/XMLSchema-instance"
 xsi:schemaLocation="http://www.topografix.com/GPX/1/1 http://www.topografix.com/GPX/1/1/gpx.xsd">
<metadata>
 <time>2024-06-11T15:50:54Z</time>
 <bounds minlat="31.774950" minlon="34.994310" maxlat="31.813180" maxlon="35.086080"/>
</metadata>
<trk>
 <name>EshtaolKusalomBurma_28km.550m</name>
 <desc>EshtaolKusalomBurma_28km.550m</desc>
<trkseg>
<trkpt lat="31.8112900" lon="35.0135900">
<ele>275.919983</ele>
<time>2024-06-11T18:50:54.444Z</time>
</trkpt>
<trkpt lat="31.8113000" lon="35.0135900">
<ele>276.010010</ele>
<time>2024-06-11T18:50:54.444Z</time>
</trkpt>
<trkpt lat="31.8114300" lon="35.0133100">
<ele>275.579987</ele>
<time>2024-06-11T18:50:54.444Z</time>
</trkpt>
<trkpt lat="31.8115100" lon="35.0129000">
<ele>276.059998</ele>
<time>2024-06-11T18:50:54.444Z</time>
</trkpt>
<trkpt lat="31.8117500" lon="35.0121400">
<ele>278.899994</ele>
<time>2024-06-11T18:50:54.444Z</time>
</trkpt>
<trkpt lat="31.8119800" lon="35.0111200">
<ele>275.480011</ele>
<time>2024-06-11T18:50:54.444Z</time>
</trkpt>
<trkpt lat="31.8120900" lon="35.0107100">
<ele>270.260010</ele>
<time>2024-06-11T18:50:54.444Z</time>
</trkpt>
<trkpt lat="31.8121500" lon="35.0105700">
<ele>269.830017</ele>
<time>2024-06-11T18:50:54.444Z</time>
</trkpt>
<trkpt lat="31.8121400" lon="35.0104800">
<ele>268.979980</ele>
<time>2024-06-11T18:50:54.444Z</time>
</trkpt>
<trkpt lat="31.8121700" lon="35.0102300">
<ele>267.779999</ele>
<time>2024-06-11T18:50:54.445Z</time>
</trkpt>
<trkpt lat="31.8122200" lon="35.0098600">
<ele>266.479980</ele>
<time>2024-06-11T18:50:54.445Z</time>
</trkpt>
<trkpt lat="31.8122700" lon="35.0089200">
<ele>261.950012</ele>
<time>2024-06-11T18:50:54.445Z</time>
</trkpt>
<trkpt lat="31.8123000" lon="35.0085900">
<ele>260.880005</ele>
<time>2024-06-11T18:50:54.445Z</time>
</trkpt>
<trkpt lat="31.8123100" lon="35.0080400">
<ele>260.549988</ele>
<time>2024-06-11T18:50:54.445Z</time>
</trkpt>
<trkpt lat="31.8123400" lon="35.0072300">
<ele>260.979980</ele>
<time>2024-06-11T18:50:54.445Z</time>
</trkpt>
<trkpt lat="31.8123700" lon="35.0068400">
<ele>261.480011</ele>
<time>2024-06-11T18:50:54.445Z</time>
</trkpt>
<trkpt lat="31.8124300" lon="35.0059600">
<ele>260.209991</ele>
<time>2024-06-11T18:50:54.445Z</time>
</trkpt>
<trkpt lat="31.8124800" lon="35.0056700">
<ele>258.179993</ele>
<time>2024-06-11T18:50:54.445Z</time>
</trkpt>
<trkpt lat="31.8124800" lon="35.0054900">
<ele>257.959991</ele>
<time>2024-06-11T18:50:54.445Z</time>
</trkpt>
<trkpt lat="31.8124800" lon="35.0054900">
<ele>257.959991</ele>
<time>2024-06-11T18:50:54.445Z</time>
</trkpt>
<trkpt lat="31.8124900" lon="35.0051300">
<ele>258.890015</ele>
<time>2024-06-11T18:50:54.445Z</time>
</trkpt>
<trkpt lat="31.8121200" lon="35.0053400">
<ele>255.550003</ele>
<time>2024-06-11T18:50:54.445Z</time>
</trkpt>
<trkpt lat="31.8120700" lon="35.0053700">
<ele>255.340012</ele>
<time>2024-06-11T18:50:54.445Z</time>
</trkpt>
<trkpt lat="31.8120000" lon="35.0053800">
<ele>255.259995</ele>
<time>2024-06-11T18:50:54.445Z</time>
</trkpt>
<trkpt lat="31.8119300" lon="35.0054200">
<ele>255.210007</ele>
<time>2024-06-11T18:50:54.445Z</time>
</trkpt>
<trkpt lat="31.8117900" lon="35.0054100">
<ele>257.540009</ele>
<time>2024-06-11T18:50:54.445Z</time>
</trkpt>
<trkpt lat="31.8116900" lon="35.0052900">
<ele>259.619995</ele>
<time>2024-06-11T18:50:54.445Z</time>
</trkpt>
<trkpt lat="31.8116200" lon="35.0051000">
<ele>260.089996</ele>
<time>2024-06-11T18:50:54.445Z</time>
</trkpt>
<trkpt lat="31.8115500" lon="35.0044700">
<ele>256.899994</ele>
<time>2024-06-11T18:50:54.445Z</time>
</trkpt>
<trkpt lat="31.8115200" lon="35.0043900">
<ele>256.429993</ele>
<time>2024-06-11T18:50:54.445Z</time>
</trkpt>
<trkpt lat="31.8114600" lon="35.0042400">
<ele>255.580002</ele>
<time>2024-06-11T18:50:54.445Z</time>
</trkpt>
<trkpt lat="31.8113800" lon="35.0041500">
<ele>255.859985</ele>
<time>2024-06-11T18:50:54.446Z</time>
</trkpt>
<trkpt lat="31.8112500" lon="35.0040100">
<ele>255.399994</ele>
<time>2024-06-11T18:50:54.446Z</time>
</trkpt>
<trkpt lat="31.8110400" lon="35.0038500">
<ele>253.370010</ele>
<time>2024-06-11T18:50:54.446Z</time>
</trkpt>
<trkpt lat="31.8109400" lon="35.0038000">
<ele>251.210007</ele>
<time>2024-06-11T18:50:54.446Z</time>
</trkpt>
<trkpt lat="31.8107700" lon="35.0037500">
<ele>248.770004</ele>
<time>2024-06-11T18:50:54.446Z</time>
</trkpt>
<trkpt lat="31.8106900" lon="35.0037500">
<ele>248.479996</ele>
<time>2024-06-11T18:50:54.446Z</time>
</trkpt>
<trkpt lat="31.8103800" lon="35.0038500">
<ele>243.740005</ele>
<time>2024-06-11T18:50:54.446Z</time>
</trkpt>
<trkpt lat="31.8101900" lon="35.0039400">
<ele>242.830002</ele>
<time>2024-06-11T18:50:54.446Z</time>
</trkpt>
<trkpt lat="31.8100700" lon="35.0040300">
<ele>245.649994</ele>
<time>2024-06-11T18:50:54.446Z</time>
</trkpt>
<trkpt lat="31.8096500" lon="35.0045600">
<ele>252.739990</ele>
<time>2024-06-11T18:50:54.446Z</time>
</trkpt>
<trkpt lat="31.8095400" lon="35.0047200">
<ele>252.669998</ele>
<time>2024-06-11T18:50:54.446Z</time>
</trkpt>
<trkpt lat="31.8094400" lon="35.0049500">
<ele>255.320007</ele>
<time>2024-06-11T18:50:54.446Z</time>
</trkpt>
<trkpt lat="31.8093900" lon="35.0050600">
<ele>257.079987</ele>
<time>2024-06-11T18:50:54.446Z</time>
</trkpt>
<trkpt lat="31.8093300" lon="35.0051100">
<ele>258.179993</ele>
<time>2024-06-11T18:50:54.446Z</time>
</trkpt>
<trkpt lat="31.8092400" lon="35.0051700">
<ele>259.760010</ele>
<time>2024-06-11T18:50:54.446Z</time>
</trkpt>
<trkpt lat="31.8090600" lon="35.0051600">
<ele>260.410004</ele>
<time>2024-06-11T18:50:54.446Z</time>
</trkpt>
<trkpt lat="31.8088300" lon="35.0050500">
<ele>259.829987</ele>
<time>2024-06-11T18:50:54.446Z</time>
</trkpt>
<trkpt lat="31.8086600" lon="35.0050000">
<ele>258.350006</ele>
<time>2024-06-11T18:50:54.446Z</time>
</trkpt>
<trkpt lat="31.8082600" lon="35.0049900">
<ele>256.709991</ele>
<time>2024-06-11T18:50:54.446Z</time>
</trkpt>
<trkpt lat="31.8081800" lon="35.0049500">
<ele>257.200012</ele>
<time>2024-06-11T18:50:54.446Z</time>
</trkpt>
<trkpt lat="31.8080000" lon="35.0048600">
<ele>258.089996</ele>
<time>2024-06-11T18:50:54.446Z</time>
</trkpt>
<trkpt lat="31.8078400" lon="35.0047500">
<ele>258.010010</ele>
<time>2024-06-11T18:50:54.446Z</time>
</trkpt>
<trkpt lat="31.8076700" lon="35.0047000">
<ele>255.040009</ele>
<time>2024-06-11T18:50:54.447Z</time>
</trkpt>
<trkpt lat="31.8074600" lon="35.0046900">
<ele>250.750000</ele>
<time>2024-06-11T18:50:54.447Z</time>
</trkpt>
<trkpt lat="31.8069100" lon="35.0049900">
<ele>251.960007</ele>
<time>2024-06-11T18:50:54.447Z</time>
</trkpt>
<trkpt lat="31.8068500" lon="35.0049400">
<ele>251.550003</ele>
<time>2024-06-11T18:50:54.447Z</time>
</trkpt>
<trkpt lat="31.8067600" lon="35.0048100">
<ele>251.060013</ele>
<time>2024-06-11T18:50:54.447Z</time>
</trkpt>
<trkpt lat="31.8067000" lon="35.0046500">
<ele>252.669998</ele>
<time>2024-06-11T18:50:54.447Z</time>
</trkpt>
<trkpt lat="31.8066700" lon="35.0045000">
<ele>255.929993</ele>
<time>2024-06-11T18:50:54.447Z</time>
</trkpt>
<trkpt lat="31.8068400" lon="35.0043300">
<ele>255.929993</ele>
<time>2024-06-11T18:50:54.447Z</time>
</trkpt>
<trkpt lat="31.8069100" lon="35.0042200">
<ele>257.809998</ele>
<time>2024-06-11T18:50:54.447Z</time>
</trkpt>
<trkpt lat="31.8069700" lon="35.0041200">
<ele>259.779999</ele>
<time>2024-06-11T18:50:54.447Z</time>
</trkpt>
<trkpt lat="31.8070400" lon="35.0040300">
<ele>260.699982</ele>
<time>2024-06-11T18:50:54.447Z</time>
</trkpt>
<trkpt lat="31.8072200" lon="35.0038800">
<ele>260.179993</ele>
<time>2024-06-11T18:50:54.447Z</time>
</trkpt>
<trkpt lat="31.8073500" lon="35.0037500">
<ele>260.160004</ele>
<time>2024-06-11T18:50:54.447Z</time>
</trkpt>
<trkpt lat="31.8074100" lon="35.0036500">
<ele>260.739990</ele>
<time>2024-06-11T18:50:54.447Z</time>
</trkpt>
<trkpt lat="31.8074600" lon="35.0035700">
<ele>260.829987</ele>
<time>2024-06-11T18:50:54.447Z</time>
</trkpt>
<trkpt lat="31.8074800" lon="35.0035400">
<ele>260.639984</ele>
<time>2024-06-11T18:50:54.447Z</time>
</trkpt>
<trkpt lat="31.8075800" lon="35.0032700">
<ele>261.589996</ele>
<time>2024-06-11T18:50:54.447Z</time>
</trkpt>
<trkpt lat="31.8075900" lon="35.0029900">
<ele>265.309998</ele>
<time>2024-06-11T18:50:54.447Z</time>
</trkpt>
<trkpt lat="31.8076500" lon="35.0029100">
<ele>267.419983</ele>
<time>2024-06-11T18:50:54.447Z</time>
</trkpt>
<trkpt lat="31.8082800" lon="35.0027500">
<ele>261.239990</ele>
<time>2024-06-11T18:50:54.447Z</time>
</trkpt>
<trkpt lat="31.8083900" lon="35.0026100">
<ele>263.050018</ele>
<time>2024-06-11T18:50:54.447Z</time>
</trkpt>
<trkpt lat="31.8085800" lon="35.0021700">
<ele>269.750000</ele>
<time>2024-06-11T18:50:54.447Z</time>
</trkpt>
<trkpt lat="31.8085800" lon="35.0021600">
<ele>269.980011</ele>
<time>2024-06-11T18:50:54.447Z</time>
</trkpt>
<trkpt lat="31.8086700" lon="35.0019600">
<ele>273.459991</ele>
<time>2024-06-11T18:50:54.447Z</time>
</trkpt>
<trkpt lat="31.8089000" lon="35.0017400">
<ele>278.079987</ele>
<time>2024-06-11T18:50:54.447Z</time>
</trkpt>
<trkpt lat="31.8094700" lon="35.0015900">
<ele>274.639984</ele>
<time>2024-06-11T18:50:54.447Z</time>
</trkpt>
<trkpt lat="31.8097800" lon="35.0013400">
<ele>272.839996</ele>
<time>2024-06-11T18:50:54.447Z</time>
</trkpt>
<trkpt lat="31.8099800" lon="35.0008900">
<ele>273.329987</ele>
<time>2024-06-11T18:50:54.448Z</time>
</trkpt>
<trkpt lat="31.8103600" lon="34.9998500">
<ele>274.679993</ele>
<time>2024-06-11T18:50:54.448Z</time>
</trkpt>
<trkpt lat="31.8106600" lon="34.9993400">
<ele>273.809998</ele>
<time>2024-06-11T18:50:54.448Z</time>
</trkpt>
<trkpt lat="31.8108100" lon="34.9991800">
<ele>271.610016</ele>
<time>2024-06-11T18:50:54.448Z</time>
</trkpt>
<trkpt lat="31.8109600" lon="34.9990700">
<ele>274.350006</ele>
<time>2024-06-11T18:50:54.448Z</time>
</trkpt>
<trkpt lat="31.8113400" lon="34.9989500">
<ele>276.140015</ele>
<time>2024-06-11T18:50:54.448Z</time>
</trkpt>
<trkpt lat="31.8117900" lon="34.9985100">
<ele>282.690002</ele>
<time>2024-06-11T18:50:54.448Z</time>
</trkpt>
<trkpt lat="31.8118900" lon="34.9984100">
<ele>283.350006</ele>
<time>2024-06-11T18:50:54.448Z</time>
</trkpt>
<trkpt lat="31.8119900" lon="34.9982800">
<ele>284.540009</ele>
<time>2024-06-11T18:50:54.448Z</time>
</trkpt>
<trkpt lat="31.8123700" lon="34.9977500">
<ele>282.600006</ele>
<time>2024-06-11T18:50:54.448Z</time>
</trkpt>
<trkpt lat="31.8126200" lon="34.9976000">
<ele>281.479980</ele>
<time>2024-06-11T18:50:54.448Z</time>
</trkpt>
<trkpt lat="31.8127600" lon="34.9975000">
<ele>282.000000</ele>
<time>2024-06-11T18:50:54.448Z</time>
</trkpt>
<trkpt lat="31.8128900" lon="34.9973700">
<ele>284.079987</ele>
<time>2024-06-11T18:50:54.448Z</time>
</trkpt>
<trkpt lat="31.8130700" lon="34.9971300">
<ele>286.299988</ele>
<time>2024-06-11T18:50:54.448Z</time>
</trkpt>
<trkpt lat="31.8131700" lon="34.9968800">
<ele>284.269989</ele>
<time>2024-06-11T18:50:54.448Z</time>
</trkpt>
<trkpt lat="31.8131800" lon="34.9967800">
<ele>284.369995</ele>
<time>2024-06-11T18:50:54.448Z</time>
</trkpt>
<trkpt lat="31.8131700" lon="34.9966100">
<ele>284.100006</ele>
<time>2024-06-11T18:50:54.448Z</time>
</trkpt>
<trkpt lat="31.8131200" lon="34.9964900">
<ele>283.350006</ele>
<time>2024-06-11T18:50:54.448Z</time>
</trkpt>
<trkpt lat="31.8130000" lon="34.9963400">
<ele>281.980011</ele>
<time>2024-06-11T18:50:54.448Z</time>
</trkpt>
<trkpt lat="31.8124600" lon="34.9958200">
<ele>276.059998</ele>
<time>2024-06-11T18:50:54.448Z</time>
</trkpt>
<trkpt lat="31.8120900" lon="34.9955200">
<ele>266.640015</ele>
<time>2024-06-11T18:50:54.448Z</time>
</trkpt>
<trkpt lat="31.8118000" lon="34.9953500">
<ele>260.209991</ele>
<time>2024-06-11T18:50:54.448Z</time>
</trkpt>
<trkpt lat="31.8116100" lon="34.9952800">
<ele>258.360016</ele>
<time>2024-06-11T18:50:54.448Z</time>
</trkpt>
<trkpt lat="31.8114000" lon="34.9952500">
<ele>262.279999</ele>
<time>2024-06-11T18:50:54.448Z</time>
</trkpt>
<trkpt lat="31.8112100" lon="34.9951900">
<ele>262.300018</ele>
<time>2024-06-11T18:50:54.448Z</time>
</trkpt>
<trkpt lat="31.8109600" lon="34.9951600">
<ele>260.779999</ele>
<time>2024-06-11T18:50:54.449Z</time>
</trkpt>
<trkpt lat="31.8107400" lon="34.9950900">
<ele>259.419983</ele>
<time>2024-06-11T18:50:54.449Z</time>
</trkpt>
<trkpt lat="31.8106600" lon="34.9950500">
<ele>259.279999</ele>
<time>2024-06-11T18:50:54.449Z</time>
</trkpt>
<trkpt lat="31.8105900" lon="34.9949700">
<ele>258.769989</ele>
<time>2024-06-11T18:50:54.449Z</time>
</trkpt>
<trkpt lat="31.8105600" lon="34.9948000">
<ele>258.259979</ele>
<time>2024-06-11T18:50:54.449Z</time>
</trkpt>
<trkpt lat="31.8105100" lon="34.9949200">
<ele>258.269989</ele>
<time>2024-06-11T18:50:54.449Z</time>
</trkpt>
<trkpt lat="31.8104200" lon="34.9949800">
<ele>257.500000</ele>
<time>2024-06-11T18:50:54.449Z</time>
</trkpt>
<trkpt lat="31.8102300" lon="34.9950200">
<ele>256.200012</ele>
<time>2024-06-11T18:50:54.449Z</time>
</trkpt>
<trkpt lat="31.8098800" lon="34.9950400">
<ele>257.670013</ele>
<time>2024-06-11T18:50:54.449Z</time>
</trkpt>
<trkpt lat="31.8089800" lon="34.9950300">
<ele>280.380005</ele>
<time>2024-06-11T18:50:54.449Z</time>
</trkpt>
<trkpt lat="31.8089100" lon="34.9950200">
<ele>280.989990</ele>
<time>2024-06-11T18:50:54.449Z</time>
</trkpt>
<trkpt lat="31.8087700" lon="34.9949700">
<ele>282.730011</ele>
<time>2024-06-11T18:50:54.449Z</time>
</trkpt>
<trkpt lat="31.8081500" lon="34.9944800">
<ele>277.640015</ele>
<time>2024-06-11T18:50:54.449Z</time>
</trkpt>
<trkpt lat="31.8079300" lon="34.9943100">
<ele>274.260010</ele>
<time>2024-06-11T18:50:54.449Z</time>
</trkpt>
<trkpt lat="31.8079200" lon="34.9944000">
<ele>273.410004</ele>
<time>2024-06-11T18:50:54.449Z</time>
</trkpt>
<trkpt lat="31.8078900" lon="34.9944700">
<ele>272.250000</ele>
<time>2024-06-11T18:50:54.449Z</time>
</trkpt>
<trkpt lat="31.8076600" lon="34.9946500">
<ele>269.320007</ele>
<time>2024-06-11T18:50:54.449Z</time>
</trkpt>
<trkpt lat="31.8074700" lon="34.9948900">
<ele>269.649994</ele>
<time>2024-06-11T18:50:54.449Z</time>
</trkpt>
<trkpt lat="31.8072100" lon="34.9952900">
<ele>272.089996</ele>
<time>2024-06-11T18:50:54.449Z</time>
</trkpt>
<trkpt lat="31.8065700" lon="34.9958000">
<ele>276.190002</ele>
<time>2024-06-11T18:50:54.449Z</time>
</trkpt>
<trkpt lat="31.8060700" lon="34.9961200">
<ele>283.209991</ele>
<time>2024-06-11T18:50:54.449Z</time>
</trkpt>
<trkpt lat="31.8059800" lon="34.9961600">
<ele>283.899994</ele>
<time>2024-06-11T18:50:54.449Z</time>
</trkpt>
<trkpt lat="31.8059200" lon="34.9961900">
<ele>284.209991</ele>
<time>2024-06-11T18:50:54.449Z</time>
</trkpt>
<trkpt lat="31.8058100" lon="34.9962100">
<ele>284.170013</ele>
<time>2024-06-11T18:50:54.449Z</time>
</trkpt>
<trkpt lat="31.8055000" lon="34.9962100">
<ele>285.820007</ele>
<time>2024-06-11T18:50:54.449Z</time>
</trkpt>
<trkpt lat="31.8052800" lon="34.9961900">
<ele>288.130005</ele>
<time>2024-06-11T18:50:54.449Z</time>
</trkpt>
<trkpt lat="31.8051600" lon="34.9962200">
<ele>289.350006</ele>
<time>2024-06-11T18:50:54.450Z</time>
</trkpt>
<trkpt lat="31.8049700" lon="34.9963000">
<ele>290.529999</ele>
<time>2024-06-11T18:50:54.450Z</time>
</trkpt>
<trkpt lat="31.8047400" lon="34.9963600">
<ele>291.390015</ele>
<time>2024-06-11T18:50:54.450Z</time>
</trkpt>
<trkpt lat="31.8045800" lon="34.9963800">
<ele>293.700012</ele>
<time>2024-06-11T18:50:54.450Z</time>
</trkpt>
<trkpt lat="31.8041300" lon="34.9963800">
<ele>290.299988</ele>
<time>2024-06-11T18:50:54.450Z</time>
</trkpt>
<trkpt lat="31.8039800" lon="34.9964000">
<ele>286.380005</ele>
<time>2024-06-11T18:50:54.450Z</time>
</trkpt>
<trkpt lat="31.8037200" lon="34.9965100">
<ele>285.059998</ele>
<time>2024-06-11T18:50:54.450Z</time>
</trkpt>
<trkpt lat="31.8037200" lon="34.9965100">
<ele>285.059998</ele>
<time>2024-06-11T18:50:54.450Z</time>
</trkpt>
<trkpt lat="31.8036700" lon="34.9965300">
<ele>285.429993</ele>
<time>2024-06-11T18:50:54.450Z</time>
</trkpt>
<trkpt lat="31.8033400" lon="34.9966200">
<ele>287.489990</ele>
<time>2024-06-11T18:50:54.450Z</time>
</trkpt>
<trkpt lat="31.8032500" lon="34.9966300">
<ele>288.880005</ele>
<time>2024-06-11T18:50:54.450Z</time>
</trkpt>
<trkpt lat="31.8031800" lon="34.9966400">
<ele>290.029999</ele>
<time>2024-06-11T18:50:54.450Z</time>
</trkpt>
<trkpt lat="31.8028500" lon="34.9965900">
<ele>293.690002</ele>
<time>2024-06-11T18:50:54.450Z</time>
</trkpt>
<trkpt lat="31.8026900" lon="34.9966000">
<ele>295.860016</ele>
<time>2024-06-11T18:50:54.450Z</time>
</trkpt>
<trkpt lat="31.8024900" lon="34.9966600">
<ele>298.250000</ele>
<time>2024-06-11T18:50:54.450Z</time>
</trkpt>
<trkpt lat="31.8022500" lon="34.9967600">
<ele>300.100006</ele>
<time>2024-06-11T18:50:54.451Z</time>
</trkpt>
<trkpt lat="31.8020900" lon="34.9968500">
<ele>299.200012</ele>
<time>2024-06-11T18:50:54.451Z</time>
</trkpt>
<trkpt lat="31.8017900" lon="34.9970500">
<ele>302.549988</ele>
<time>2024-06-11T18:50:54.451Z</time>
</trkpt>
<trkpt lat="31.8016100" lon="34.9971700">
<ele>305.149994</ele>
<time>2024-06-11T18:50:54.451Z</time>
</trkpt>
<trkpt lat="31.8013900" lon="34.9973900">
<ele>313.019989</ele>
<time>2024-06-11T18:50:54.451Z</time>
</trkpt>
<trkpt lat="31.8012600" lon="34.9974700">
<ele>312.449982</ele>
<time>2024-06-11T18:50:54.451Z</time>
</trkpt>
<trkpt lat="31.8004100" lon="34.9979500">
<ele>320.390015</ele>
<time>2024-06-11T18:50:54.451Z</time>
</trkpt>
<trkpt lat="31.8002000" lon="34.9980300">
<ele>321.130005</ele>
<time>2024-06-11T18:50:54.451Z</time>
</trkpt>
<trkpt lat="31.7996700" lon="34.9981600">
<ele>321.380005</ele>
<time>2024-06-11T18:50:54.451Z</time>
</trkpt>
<trkpt lat="31.7989000" lon="34.9983100">
<ele>309.769989</ele>
<time>2024-06-11T18:50:54.451Z</time>
</trkpt>
<trkpt lat="31.7985700" lon="34.9984400">
<ele>312.990021</ele>
<time>2024-06-11T18:50:54.451Z</time>
</trkpt>
<trkpt lat="31.7979700" lon="34.9987400">
<ele>322.769989</ele>
<time>2024-06-11T18:50:54.451Z</time>
</trkpt>
<trkpt lat="31.7977100" lon="34.9988200">
<ele>331.889984</ele>
<time>2024-06-11T18:50:54.451Z</time>
</trkpt>
<trkpt lat="31.7969600" lon="34.9991200">
<ele>341.489990</ele>
<time>2024-06-11T18:50:54.451Z</time>
</trkpt>
<trkpt lat="31.7968300" lon="34.9991600">
<ele>343.090027</ele>
<time>2024-06-11T18:50:54.451Z</time>
</trkpt>
<trkpt lat="31.7965600" lon="34.9991500">
<ele>347.559998</ele>
<time>2024-06-11T18:50:54.451Z</time>
</trkpt>
<trkpt lat="31.7964700" lon="34.9991600">
<ele>348.850006</ele>
<time>2024-06-11T18:50:54.451Z</time>
</trkpt>
<trkpt lat="31.7961100" lon="34.9993200">
<ele>343.869995</ele>
<time>2024-06-11T18:50:54.451Z</time>
</trkpt>
<trkpt lat="31.7957100" lon="34.9994100">
<ele>339.079987</ele>
<time>2024-06-11T18:50:54.451Z</time>
</trkpt>
<trkpt lat="31.7955700" lon="34.9994700">
<ele>339.360016</ele>
<time>2024-06-11T18:50:54.451Z</time>
</trkpt>
<trkpt lat="31.7953000" lon="34.9996500">
<ele>342.920013</ele>
<time>2024-06-11T18:50:54.451Z</time>
</trkpt>
<trkpt lat="31.7951100" lon="34.9997600">
<ele>343.520020</ele>
<time>2024-06-11T18:50:54.451Z</time>
</trkpt>
<trkpt lat="31.7945600" lon="35.0001400">
<ele>344.179993</ele>
<time>2024-06-11T18:50:54.451Z</time>
</trkpt>
<trkpt lat="31.7943400" lon="35.0002500">
<ele>347.840027</ele>
<time>2024-06-11T18:50:54.451Z</time>
</trkpt>
<trkpt lat="31.7941200" lon="35.0003100">
<ele>350.639984</ele>
<time>2024-06-11T18:50:54.451Z</time>
</trkpt>
<trkpt lat="31.7940800" lon="35.0003200">
<ele>351.140015</ele>
<time>2024-06-11T18:50:54.451Z</time>
</trkpt>
<trkpt lat="31.7940300" lon="35.0003900">
<ele>352.080017</ele>
<time>2024-06-11T18:50:54.451Z</time>
</trkpt>
<trkpt lat="31.7940100" lon="35.0005000">
<ele>352.939972</ele>
<time>2024-06-11T18:50:54.452Z</time>
</trkpt>
<trkpt lat="31.7941000" lon="35.0005900">
<ele>352.609985</ele>
<time>2024-06-11T18:50:54.452Z</time>
</trkpt>
<trkpt lat="31.7943300" lon="35.0006800">
<ele>352.630005</ele>
<time>2024-06-11T18:50:54.452Z</time>
</trkpt>
<trkpt lat="31.7944300" lon="35.0007900">
<ele>352.859985</ele>
<time>2024-06-11T18:50:54.452Z</time>
</trkpt>
<trkpt lat="31.7945300" lon="35.0007900">
<ele>353.419983</ele>
<time>2024-06-11T18:50:54.452Z</time>
</trkpt>
<trkpt lat="31.7949100" lon="35.0006700">
<ele>355.609985</ele>
<time>2024-06-11T18:50:54.452Z</time>
</trkpt>
<trkpt lat="31.7950500" lon="35.0006400">
<ele>357.500000</ele>
<time>2024-06-11T18:50:54.452Z</time>
</trkpt>
<trkpt lat="31.7953200" lon="35.0006500">
<ele>365.040009</ele>
<time>2024-06-11T18:50:54.452Z</time>
</trkpt>
<trkpt lat="31.7954100" lon="35.0006700">
<ele>366.980011</ele>
<time>2024-06-11T18:50:54.452Z</time>
</trkpt>
<trkpt lat="31.7956600" lon="35.0007900">
<ele>372.750000</ele>
<time>2024-06-11T18:50:54.452Z</time>
</trkpt>
<trkpt lat="31.7958200" lon="35.0009300">
<ele>374.699982</ele>
<time>2024-06-11T18:50:54.452Z</time>
</trkpt>
<trkpt lat="31.7958800" lon="35.0010100">
<ele>374.489990</ele>
<time>2024-06-11T18:50:54.452Z</time>
</trkpt>
<trkpt lat="31.7959200" lon="35.0011100">
<ele>374.429993</ele>
<time>2024-06-11T18:50:54.452Z</time>
</trkpt>
<trkpt lat="31.7959100" lon="35.0012500">
<ele>374.619995</ele>
<time>2024-06-11T18:50:54.452Z</time>
</trkpt>
<trkpt lat="31.7958100" lon="35.0015000">
<ele>377.070007</ele>
<time>2024-06-11T18:50:54.452Z</time>
</trkpt>
<trkpt lat="31.7956600" lon="35.0017100">
<ele>376.430023</ele>
<time>2024-06-11T18:50:54.452Z</time>
</trkpt>
<trkpt lat="31.7951600" lon="35.0022300">
<ele>377.670013</ele>
<time>2024-06-11T18:50:54.452Z</time>
</trkpt>
<trkpt lat="31.7951700" lon="35.0022400">
<ele>377.489990</ele>
<time>2024-06-11T18:50:54.452Z</time>
</trkpt>
<trkpt lat="31.7951600" lon="35.0022300">
<ele>377.670013</ele>
<time>2024-06-11T18:50:54.452Z</time>
</trkpt>
<trkpt lat="31.7948900" lon="35.0025100">
<ele>380.120026</ele>
<time>2024-06-11T18:50:54.452Z</time>
</trkpt>
<trkpt lat="31.7946200" lon="35.0027600">
<ele>383.059998</ele>
<time>2024-06-11T18:50:54.452Z</time>
</trkpt>
<trkpt lat="31.7944900" lon="35.0029100">
<ele>384.350006</ele>
<time>2024-06-11T18:50:54.452Z</time>
</trkpt>
<trkpt lat="31.7944200" lon="35.0030200">
<ele>385.009979</ele>
<time>2024-06-11T18:50:54.452Z</time>
</trkpt>
<trkpt lat="31.7940800" lon="35.0036500">
<ele>384.860016</ele>
<time>2024-06-11T18:50:54.452Z</time>
</trkpt>
<trkpt lat="31.7940000" lon="35.0038400">
<ele>382.000000</ele>
<time>2024-06-11T18:50:54.452Z</time>
</trkpt>
<trkpt lat="31.7939100" lon="35.0040200">
<ele>378.539978</ele>
<time>2024-06-11T18:50:54.452Z</time>
</trkpt>
<trkpt lat="31.7935800" lon="35.0044700">
<ele>373.250000</ele>
<time>2024-06-11T18:50:54.453Z</time>
</trkpt>
<trkpt lat="31.7935600" lon="35.0044700">
<ele>373.339996</ele>
<time>2024-06-11T18:50:54.453Z</time>
</trkpt>
<trkpt lat="31.7935200" lon="35.0044800">
<ele>373.619995</ele>
<time>2024-06-11T18:50:54.453Z</time>
</trkpt>
<trkpt lat="31.7933700" lon="35.0045200">
<ele>375.079987</ele>
<time>2024-06-11T18:50:54.453Z</time>
</trkpt>
<trkpt lat="31.7932000" lon="35.0045800">
<ele>375.739990</ele>
<time>2024-06-11T18:50:54.453Z</time>
</trkpt>
<trkpt lat="31.7930900" lon="35.0045500">
<ele>374.899994</ele>
<time>2024-06-11T18:50:54.453Z</time>
</trkpt>
<trkpt lat="31.7929400" lon="35.0044700">
<ele>372.670013</ele>
<time>2024-06-11T18:50:54.453Z</time>
</trkpt>
<trkpt lat="31.7927900" lon="35.0044200">
<ele>370.079987</ele>
<time>2024-06-11T18:50:54.453Z</time>
</trkpt>
<trkpt lat="31.7918900" lon="35.0043700">
<ele>361.049988</ele>
<time>2024-06-11T18:50:54.453Z</time>
</trkpt>
<trkpt lat="31.7917900" lon="35.0043600">
<ele>361.169983</ele>
<time>2024-06-11T18:50:54.453Z</time>
</trkpt>
<trkpt lat="31.7902300" lon="35.0040900">
<ele>350.849976</ele>
<time>2024-06-11T18:50:54.453Z</time>
</trkpt>
<trkpt lat="31.7900700" lon="35.0040600">
<ele>347.910004</ele>
<time>2024-06-11T18:50:54.453Z</time>
</trkpt>
<trkpt lat="31.7894100" lon="35.0040100">
<ele>332.819977</ele>
<time>2024-06-11T18:50:54.453Z</time>
</trkpt>
<trkpt lat="31.7891400" lon="35.0040200">
<ele>327.469971</ele>
<time>2024-06-11T18:50:54.453Z</time>
</trkpt>
<trkpt lat="31.7889100" lon="35.0040800">
<ele>328.669983</ele>
<time>2024-06-11T18:50:54.453Z</time>
</trkpt>
<trkpt lat="31.7888000" lon="35.0041500">
<ele>328.600006</ele>
<time>2024-06-11T18:50:54.453Z</time>
</trkpt>
<trkpt lat="31.7886800" lon="35.0042700">
<ele>330.389984</ele>
<time>2024-06-11T18:50:54.453Z</time>
</trkpt>
<trkpt lat="31.7878200" lon="35.0054600">
<ele>328.220001</ele>
<time>2024-06-11T18:50:54.453Z</time>
</trkpt>
<trkpt lat="31.7875800" lon="35.0059000">
<ele>325.730011</ele>
<time>2024-06-11T18:50:54.453Z</time>
</trkpt>
<trkpt lat="31.7874700" lon="35.0062400">
<ele>328.270020</ele>
<time>2024-06-11T18:50:54.453Z</time>
</trkpt>
<trkpt lat="31.7873900" lon="35.0065800">
<ele>327.939972</ele>
<time>2024-06-11T18:50:54.453Z</time>
</trkpt>
<trkpt lat="31.7873500" lon="35.0070300">
<ele>324.170013</ele>
<time>2024-06-11T18:50:54.453Z</time>
</trkpt>
<trkpt lat="31.7873100" lon="35.0072100">
<ele>322.339996</ele>
<time>2024-06-11T18:50:54.453Z</time>
</trkpt>
<trkpt lat="31.7872600" lon="35.0072900">
<ele>322.000000</ele>
<time>2024-06-11T18:50:54.453Z</time>
</trkpt>
<trkpt lat="31.7871100" lon="35.0074100">
<ele>322.100006</ele>
<time>2024-06-11T18:50:54.453Z</time>
</trkpt>
<trkpt lat="31.7870000" lon="35.0074400">
<ele>322.500031</ele>
<time>2024-06-11T18:50:54.453Z</time>
</trkpt>
<trkpt lat="31.7868000" lon="35.0074200">
<ele>320.270020</ele>
<time>2024-06-11T18:50:54.453Z</time>
</trkpt>
<trkpt lat="31.7863000" lon="35.0072700">
<ele>309.279999</ele>
<time>2024-06-11T18:50:54.454Z</time>
</trkpt>
<trkpt lat="31.7862200" lon="35.0072500">
<ele>308.259979</ele>
<time>2024-06-11T18:50:54.454Z</time>
</trkpt>
<trkpt lat="31.7860200" lon="35.0073000">
<ele>307.459991</ele>
<time>2024-06-11T18:50:54.454Z</time>
</trkpt>
<trkpt lat="31.7859300" lon="35.0073000">
<ele>306.820007</ele>
<time>2024-06-11T18:50:54.454Z</time>
</trkpt>
<trkpt lat="31.7857600" lon="35.0073100">
<ele>307.239990</ele>
<time>2024-06-11T18:50:54.454Z</time>
</trkpt>
<trkpt lat="31.7853600" lon="35.0074600">
<ele>315.690002</ele>
<time>2024-06-11T18:50:54.454Z</time>
</trkpt>
<trkpt lat="31.7852600" lon="35.0075000">
<ele>318.130005</ele>
<time>2024-06-11T18:50:54.454Z</time>
</trkpt>
<trkpt lat="31.7851700" lon="35.0075600">
<ele>318.430023</ele>
<time>2024-06-11T18:50:54.454Z</time>
</trkpt>
<trkpt lat="31.7851400" lon="35.0075800">
<ele>318.560028</ele>
<time>2024-06-11T18:50:54.454Z</time>
</trkpt>
<trkpt lat="31.7844300" lon="35.0078600">
<ele>320.759979</ele>
<time>2024-06-11T18:50:54.454Z</time>
</trkpt>
<trkpt lat="31.7843100" lon="35.0079200">
<ele>320.579987</ele>
<time>2024-06-11T18:50:54.454Z</time>
</trkpt>
<trkpt lat="31.7842100" lon="35.0080100">
<ele>321.389984</ele>
<time>2024-06-11T18:50:54.454Z</time>
</trkpt>
<trkpt lat="31.7841100" lon="35.0081700">
<ele>322.339996</ele>
<time>2024-06-11T18:50:54.454Z</time>
</trkpt>
<trkpt lat="31.7841000" lon="35.0082100">
<ele>322.570007</ele>
<time>2024-06-11T18:50:54.454Z</time>
</trkpt>
<trkpt lat="31.7840800" lon="35.0083500">
<ele>323.459991</ele>
<time>2024-06-11T18:50:54.454Z</time>
</trkpt>
<trkpt lat="31.7840500" lon="35.0088300">
<ele>322.989990</ele>
<time>2024-06-11T18:50:54.454Z</time>
</trkpt>
<trkpt lat="31.7839000" lon="35.0095000">
<ele>322.250000</ele>
<time>2024-06-11T18:50:54.454Z</time>
</trkpt>
<trkpt lat="31.7838400" lon="35.0096600">
<ele>321.219971</ele>
<time>2024-06-11T18:50:54.454Z</time>
</trkpt>
<trkpt lat="31.7837200" lon="35.0097900">
<ele>319.030029</ele>
<time>2024-06-11T18:50:54.454Z</time>
</trkpt>
<trkpt lat="31.7834600" lon="35.0099600">
<ele>312.940002</ele>
<time>2024-06-11T18:50:54.454Z</time>
</trkpt>
<trkpt lat="31.7831700" lon="35.0101300">
<ele>308.579987</ele>
<time>2024-06-11T18:50:54.454Z</time>
</trkpt>
<trkpt lat="31.7828900" lon="35.0103100">
<ele>306.520020</ele>
<time>2024-06-11T18:50:54.454Z</time>
</trkpt>
<trkpt lat="31.7823300" lon="35.0107200">
<ele>302.549988</ele>
<time>2024-06-11T18:50:54.455Z</time>
</trkpt>
<trkpt lat="31.7822300" lon="35.0108100">
<ele>302.029999</ele>
<time>2024-06-11T18:50:54.455Z</time>
</trkpt>
<trkpt lat="31.7821800" lon="35.0108500">
<ele>301.619995</ele>
<time>2024-06-11T18:50:54.455Z</time>
</trkpt>
<trkpt lat="31.7820900" lon="35.0109700">
<ele>300.390015</ele>
<time>2024-06-11T18:50:54.455Z</time>
</trkpt>
<trkpt lat="31.7820400" lon="35.0110700">
<ele>298.940002</ele>
<time>2024-06-11T18:50:54.455Z</time>
</trkpt>
<trkpt lat="31.7819100" lon="35.0114600">
<ele>293.989990</ele>
<time>2024-06-11T18:50:54.455Z</time>
</trkpt>
<trkpt lat="31.7818400" lon="35.0116200">
<ele>291.829987</ele>
<time>2024-06-11T18:50:54.455Z</time>
</trkpt>
<trkpt lat="31.7817600" lon="35.0117500">
<ele>290.339996</ele>
<time>2024-06-11T18:50:54.455Z</time>
</trkpt>
<trkpt lat="31.7816500" lon="35.0118400">
<ele>289.440002</ele>
<time>2024-06-11T18:50:54.455Z</time>
</trkpt>
<trkpt lat="31.7815100" lon="35.0119100">
<ele>288.179993</ele>
<time>2024-06-11T18:50:54.455Z</time>
</trkpt>
<trkpt lat="31.7814400" lon="35.0119300">
<ele>287.500000</ele>
<time>2024-06-11T18:50:54.455Z</time>
</trkpt>
<trkpt lat="31.7811000" lon="35.0119200">
<ele>284.700012</ele>
<time>2024-06-11T18:50:54.455Z</time>
</trkpt>
<trkpt lat="31.7808400" lon="35.0118600">
<ele>283.709991</ele>
<time>2024-06-11T18:50:54.455Z</time>
</trkpt>
<trkpt lat="31.7807600" lon="35.0118200">
<ele>282.929993</ele>
<time>2024-06-11T18:50:54.455Z</time>
</trkpt>
<trkpt lat="31.7806800" lon="35.0117600">
<ele>281.679993</ele>
<time>2024-06-11T18:50:54.455Z</time>
</trkpt>
<trkpt lat="31.7806400" lon="35.0117000">
<ele>280.589996</ele>
<time>2024-06-11T18:50:54.455Z</time>
</trkpt>
<trkpt lat="31.7806000" lon="35.0116100">
<ele>279.169983</ele>
<time>2024-06-11T18:50:54.455Z</time>
</trkpt>
<trkpt lat="31.7805900" lon="35.0115500">
<ele>278.549988</ele>
<time>2024-06-11T18:50:54.455Z</time>
</trkpt>
<trkpt lat="31.7806400" lon="35.0112200">
<ele>276.389984</ele>
<time>2024-06-11T18:50:54.455Z</time>
</trkpt>
<trkpt lat="31.7804400" lon="35.0111100">
<ele>275.410004</ele>
<time>2024-06-11T18:50:54.455Z</time>
</trkpt>
<trkpt lat="31.7801500" lon="35.0110100">
<ele>276.220001</ele>
<time>2024-06-11T18:50:54.455Z</time>
</trkpt>
<trkpt lat="31.7800300" lon="35.0109400">
<ele>276.070007</ele>
<time>2024-06-11T18:50:54.456Z</time>
</trkpt>
<trkpt lat="31.7794700" lon="35.0106100">
<ele>270.529999</ele>
<time>2024-06-11T18:50:54.456Z</time>
</trkpt>
<trkpt lat="31.7793400" lon="35.0105700">
<ele>267.739990</ele>
<time>2024-06-11T18:50:54.456Z</time>
</trkpt>
<trkpt lat="31.7792200" lon="35.0105600">
<ele>265.149994</ele>
<time>2024-06-11T18:50:54.456Z</time>
</trkpt>
<trkpt lat="31.7790700" lon="35.0106100">
<ele>262.739990</ele>
<time>2024-06-11T18:50:54.456Z</time>
</trkpt>
<trkpt lat="31.7786200" lon="35.0108200">
<ele>262.869995</ele>
<time>2024-06-11T18:50:54.456Z</time>
</trkpt>
<trkpt lat="31.7785700" lon="35.0108400">
<ele>262.170013</ele>
<time>2024-06-11T18:50:54.456Z</time>
</trkpt>
<trkpt lat="31.7784800" lon="35.0108800">
<ele>260.429993</ele>
<time>2024-06-11T18:50:54.456Z</time>
</trkpt>
<trkpt lat="31.7784500" lon="35.0109000">
<ele>260.010010</ele>
<time>2024-06-11T18:50:54.456Z</time>
</trkpt>
<trkpt lat="31.7784200" lon="35.0109200">
<ele>259.720001</ele>
<time>2024-06-11T18:50:54.456Z</time>
</trkpt>
<trkpt lat="31.7783800" lon="35.0109400">
<ele>259.479980</ele>
<time>2024-06-11T18:50:54.456Z</time>
</trkpt>
<trkpt lat="31.7783500" lon="35.0109600">
<ele>259.450012</ele>
<time>2024-06-11T18:50:54.456Z</time>
</trkpt>
<trkpt lat="31.7783200" lon="35.0109800">
<ele>259.410004</ele>
<time>2024-06-11T18:50:54.456Z</time>
</trkpt>
<trkpt lat="31.7782900" lon="35.0110000">
<ele>259.209991</ele>
<time>2024-06-11T18:50:54.456Z</time>
</trkpt>
<trkpt lat="31.7782600" lon="35.0110200">
<ele>258.960022</ele>
<time>2024-06-11T18:50:54.456Z</time>
</trkpt>
<trkpt lat="31.7782000" lon="35.0111000">
<ele>258.540009</ele>
<time>2024-06-11T18:50:54.457Z</time>
</trkpt>
<trkpt lat="31.7781600" lon="35.0111400">
<ele>257.929993</ele>
<time>2024-06-11T18:50:54.457Z</time>
</trkpt>
<trkpt lat="31.7781200" lon="35.0111700">
<ele>257.390015</ele>
<time>2024-06-11T18:50:54.457Z</time>
</trkpt>
<trkpt lat="31.7780800" lon="35.0111900">
<ele>256.910004</ele>
<time>2024-06-11T18:50:54.457Z</time>
</trkpt>
<trkpt lat="31.7780400" lon="35.0112000">
<ele>256.619995</ele>
<time>2024-06-11T18:50:54.457Z</time>
</trkpt>
<trkpt lat="31.7779900" lon="35.0111900">
<ele>256.500000</ele>
<time>2024-06-11T18:50:54.457Z</time>
</trkpt>
<trkpt lat="31.7779500" lon="35.0111700">
<ele>256.339996</ele>
<time>2024-06-11T18:50:54.457Z</time>
</trkpt>
<trkpt lat="31.7779100" lon="35.0111300">
<ele>256.100006</ele>
<time>2024-06-11T18:50:54.457Z</time>
</trkpt>
<trkpt lat="31.7779200" lon="35.0111200">
<ele>256.050018</ele>
<time>2024-06-11T18:50:54.457Z</time>
</trkpt>
<trkpt lat="31.7777500" lon="35.0112000">
<ele>255.720001</ele>
<time>2024-06-11T18:50:54.457Z</time>
</trkpt>
<trkpt lat="31.7775800" lon="35.0112400">
<ele>252.190002</ele>
<time>2024-06-11T18:50:54.457Z</time>
</trkpt>
<trkpt lat="31.7774600" lon="35.0112800">
<ele>250.089996</ele>
<time>2024-06-11T18:50:54.457Z</time>
</trkpt>
<trkpt lat="31.7772600" lon="35.0113100">
<ele>247.510010</ele>
<time>2024-06-11T18:50:54.457Z</time>
</trkpt>
<trkpt lat="31.7771400" lon="35.0113300">
<ele>246.869995</ele>
<time>2024-06-11T18:50:54.457Z</time>
</trkpt>
<trkpt lat="31.7770500" lon="35.0113600">
<ele>246.869995</ele>
<time>2024-06-11T18:50:54.457Z</time>
</trkpt>
<trkpt lat="31.7769100" lon="35.0114200">
<ele>247.520004</ele>
<time>2024-06-11T18:50:54.457Z</time>
</trkpt>
<trkpt lat="31.7768600" lon="35.0114400">
<ele>247.750000</ele>
<time>2024-06-11T18:50:54.457Z</time>
</trkpt>
<trkpt lat="31.7768300" lon="35.0114300">
<ele>247.559998</ele>
<time>2024-06-11T18:50:54.457Z</time>
</trkpt>
<trkpt lat="31.7768000" lon="35.0114200">
<ele>247.389999</ele>
<time>2024-06-11T18:50:54.458Z</time>
</trkpt>
<trkpt lat="31.7767800" lon="35.0114100">
<ele>247.250000</ele>
<time>2024-06-11T18:50:54.458Z</time>
</trkpt>
<trkpt lat="31.7767400" lon="35.0113900">
<ele>247.009995</ele>
<time>2024-06-11T18:50:54.458Z</time>
</trkpt>
<trkpt lat="31.7767200" lon="35.0113900">
<ele>247.009995</ele>
<time>2024-06-11T18:50:54.458Z</time>
</trkpt>
<trkpt lat="31.7766200" lon="35.0114100">
<ele>247.309998</ele>
<time>2024-06-11T18:50:54.458Z</time>
</trkpt>
<trkpt lat="31.7765900" lon="35.0114300">
<ele>247.530014</ele>
<time>2024-06-11T18:50:54.458Z</time>
</trkpt>
<trkpt lat="31.7765700" lon="35.0114600">
<ele>247.769989</ele>
<time>2024-06-11T18:50:54.458Z</time>
</trkpt>
<trkpt lat="31.7765300" lon="35.0115100">
<ele>248.150009</ele>
<time>2024-06-11T18:50:54.458Z</time>
</trkpt>
<trkpt lat="31.7765200" lon="35.0115500">
<ele>248.380005</ele>
<time>2024-06-11T18:50:54.458Z</time>
</trkpt>
<trkpt lat="31.7765100" lon="35.0115800">
<ele>248.550003</ele>
<time>2024-06-11T18:50:54.458Z</time>
</trkpt>
<trkpt lat="31.7764900" lon="35.0116100">
<ele>248.720001</ele>
<time>2024-06-11T18:50:54.458Z</time>
</trkpt>
<trkpt lat="31.7764700" lon="35.0116400">
<ele>248.880005</ele>
<time>2024-06-11T18:50:54.458Z</time>
</trkpt>
<trkpt lat="31.7764400" lon="35.0116900">
<ele>248.900009</ele>
<time>2024-06-11T18:50:54.458Z</time>
</trkpt>
<trkpt lat="31.7758200" lon="35.0120000">
<ele>260.930023</ele>
<time>2024-06-11T18:50:54.458Z</time>
</trkpt>
<trkpt lat="31.7756900" lon="35.0120800">
<ele>262.510010</ele>
<time>2024-06-11T18:50:54.458Z</time>
</trkpt>
<trkpt lat="31.7755700" lon="35.0121700">
<ele>262.420013</ele>
<time>2024-06-11T18:50:54.458Z</time>
</trkpt>
<trkpt lat="31.7754600" lon="35.0123100">
<ele>261.239990</ele>
<time>2024-06-11T18:50:54.458Z</time>
</trkpt>
<trkpt lat="31.7750600" lon="35.0128800">
<ele>263.570007</ele>
<time>2024-06-11T18:50:54.458Z</time>
</trkpt>
<trkpt lat="31.7749700" lon="35.0130800">
<ele>267.559998</ele>
<time>2024-06-11T18:50:54.458Z</time>
</trkpt>
<trkpt lat="31.7749500" lon="35.0132300">
<ele>269.190002</ele>
<time>2024-06-11T18:50:54.459Z</time>
</trkpt>
<trkpt lat="31.7749500" lon="35.0135300">
<ele>273.220001</ele>
<time>2024-06-11T18:50:54.459Z</time>
</trkpt>
<trkpt lat="31.7749800" lon="35.0142400">
<ele>272.070007</ele>
<time>2024-06-11T18:50:54.459Z</time>
</trkpt>
<trkpt lat="31.7752000" lon="35.0143900">
<ele>273.850006</ele>
<time>2024-06-11T18:50:54.459Z</time>
</trkpt>
<trkpt lat="31.7752900" lon="35.0142400">
<ele>274.320007</ele>
<time>2024-06-11T18:50:54.459Z</time>
</trkpt>
<trkpt lat="31.7752600" lon="35.0140200">
<ele>273.970001</ele>
<time>2024-06-11T18:50:54.459Z</time>
</trkpt>
<trkpt lat="31.7754000" lon="35.0139300">
<ele>272.880005</ele>
<time>2024-06-11T18:50:54.459Z</time>
</trkpt>
<trkpt lat="31.7755900" lon="35.0140200">
<ele>272.100006</ele>
<time>2024-06-11T18:50:54.459Z</time>
</trkpt>
<trkpt lat="31.7757000" lon="35.0140900">
<ele>271.989990</ele>
<time>2024-06-11T18:50:54.459Z</time>
</trkpt>
<trkpt lat="31.7757800" lon="35.0142100">
<ele>273.570007</ele>
<time>2024-06-11T18:50:54.459Z</time>
</trkpt>
<trkpt lat="31.7759400" lon="35.0143300">
<ele>275.480011</ele>
<time>2024-06-11T18:50:54.459Z</time>
</trkpt>
<trkpt lat="31.7760900" lon="35.0144100">
<ele>275.540009</ele>
<time>2024-06-11T18:50:54.459Z</time>
</trkpt>
<trkpt lat="31.7764800" lon="35.0145200">
<ele>264.950012</ele>
<time>2024-06-11T18:50:54.459Z</time>
</trkpt>
<trkpt lat="31.7768600" lon="35.0147500">
<ele>255.550003</ele>
<time>2024-06-11T18:50:54.459Z</time>
</trkpt>
<trkpt lat="31.7770700" lon="35.0155800">
<ele>266.190002</ele>
<time>2024-06-11T18:50:54.459Z</time>
</trkpt>
<trkpt lat="31.7774000" lon="35.0159800">
<ele>262.910004</ele>
<time>2024-06-11T18:50:54.459Z</time>
</trkpt>
<trkpt lat="31.7774100" lon="35.0159800">
<ele>262.679993</ele>
<time>2024-06-11T18:50:54.459Z</time>
</trkpt>
<trkpt lat="31.7774100" lon="35.0159800">
<ele>262.679993</ele>
<time>2024-06-11T18:50:54.459Z</time>
</trkpt>
<trkpt lat="31.7774200" lon="35.0159700">
<ele>262.350006</ele>
<time>2024-06-11T18:50:54.459Z</time>
</trkpt>
<trkpt lat="31.7775100" lon="35.0160400">
<ele>261.089996</ele>
<time>2024-06-11T18:50:54.460Z</time>
</trkpt>
<trkpt lat="31.7776200" lon="35.0160600">
<ele>259.720001</ele>
<time>2024-06-11T18:50:54.460Z</time>
</trkpt>
<trkpt lat="31.7776800" lon="35.0160700">
<ele>258.960022</ele>
<time>2024-06-11T18:50:54.460Z</time>
</trkpt>
<trkpt lat="31.7779000" lon="35.0159900">
<ele>255.510010</ele>
<time>2024-06-11T18:50:54.460Z</time>
</trkpt>
<trkpt lat="31.7780200" lon="35.0159500">
<ele>254.290009</ele>
<time>2024-06-11T18:50:54.460Z</time>
</trkpt>
<trkpt lat="31.7781800" lon="35.0159500">
<ele>254.639999</ele>
<time>2024-06-11T18:50:54.460Z</time>
</trkpt>
<trkpt lat="31.7782600" lon="35.0160400">
<ele>255.280014</ele>
<time>2024-06-11T18:50:54.460Z</time>
</trkpt>
<trkpt lat="31.7782500" lon="35.0163000">
<ele>256.489990</ele>
<time>2024-06-11T18:50:54.460Z</time>
</trkpt>
<trkpt lat="31.7782600" lon="35.0164500">
<ele>257.390015</ele>
<time>2024-06-11T18:50:54.460Z</time>
</trkpt>
<trkpt lat="31.7783400" lon="35.0167300">
<ele>258.010010</ele>
<time>2024-06-11T18:50:54.460Z</time>
</trkpt>
<trkpt lat="31.7784000" lon="35.0170300">
<ele>258.299988</ele>
<time>2024-06-11T18:50:54.460Z</time>
</trkpt>
<trkpt lat="31.7784700" lon="35.0172000">
<ele>258.899994</ele>
<time>2024-06-11T18:50:54.460Z</time>
</trkpt>
<trkpt lat="31.7786000" lon="35.0175100">
<ele>263.299988</ele>
<time>2024-06-11T18:50:54.460Z</time>
</trkpt>
<trkpt lat="31.7787300" lon="35.0177200">
<ele>266.959991</ele>
<time>2024-06-11T18:50:54.460Z</time>
</trkpt>
<trkpt lat="31.7788600" lon="35.0178600">
<ele>269.540009</ele>
<time>2024-06-11T18:50:54.460Z</time>
</trkpt>
<trkpt lat="31.7788600" lon="35.0178600">
<ele>269.540009</ele>
<time>2024-06-11T18:50:54.460Z</time>
</trkpt>
<trkpt lat="31.7788800" lon="35.0178800">
<ele>269.859985</ele>
<time>2024-06-11T18:50:54.460Z</time>
</trkpt>
<trkpt lat="31.7799400" lon="35.0182000">
<ele>265.339996</ele>
<time>2024-06-11T18:50:54.460Z</time>
</trkpt>
<trkpt lat="31.7801700" lon="35.0183300">
<ele>264.019989</ele>
<time>2024-06-11T18:50:54.460Z</time>
</trkpt>
<trkpt lat="31.7803000" lon="35.0185000">
<ele>264.299988</ele>
<time>2024-06-11T18:50:54.460Z</time>
</trkpt>
<trkpt lat="31.7804400" lon="35.0187800">
<ele>263.190002</ele>
<time>2024-06-11T18:50:54.461Z</time>
</trkpt>
<trkpt lat="31.7805000" lon="35.0189800">
<ele>262.399994</ele>
<time>2024-06-11T18:50:54.461Z</time>
</trkpt>
<trkpt lat="31.7805100" lon="35.0189900">
<ele>262.149994</ele>
<time>2024-06-11T18:50:54.461Z</time>
</trkpt>
<trkpt lat="31.7805000" lon="35.0189900">
<ele>262.399994</ele>
<time>2024-06-11T18:50:54.461Z</time>
</trkpt>
<trkpt lat="31.7805000" lon="35.0189900">
<ele>262.399994</ele>
<time>2024-06-11T18:50:54.461Z</time>
</trkpt>
<trkpt lat="31.7805500" lon="35.0193600">
<ele>262.480011</ele>
<time>2024-06-11T18:50:54.461Z</time>
</trkpt>
<trkpt lat="31.7805500" lon="35.0195600">
<ele>263.479980</ele>
<time>2024-06-11T18:50:54.461Z</time>
</trkpt>
<trkpt lat="31.7805500" lon="35.0197600">
<ele>264.339996</ele>
<time>2024-06-11T18:50:54.461Z</time>
</trkpt>
<trkpt lat="31.7805100" lon="35.0200500">
<ele>266.279999</ele>
<time>2024-06-11T18:50:54.461Z</time>
</trkpt>
<trkpt lat="31.7802900" lon="35.0204900">
<ele>266.179993</ele>
<time>2024-06-11T18:50:54.461Z</time>
</trkpt>
<trkpt lat="31.7797800" lon="35.0213400">
<ele>265.750000</ele>
<time>2024-06-11T18:50:54.461Z</time>
</trkpt>
<trkpt lat="31.7795500" lon="35.0217200">
<ele>264.309998</ele>
<time>2024-06-11T18:50:54.461Z</time>
</trkpt>
<trkpt lat="31.7793700" lon="35.0220700">
<ele>266.389984</ele>
<time>2024-06-11T18:50:54.461Z</time>
</trkpt>
<trkpt lat="31.7791600" lon="35.0225200">
<ele>267.269989</ele>
<time>2024-06-11T18:50:54.461Z</time>
</trkpt>
<trkpt lat="31.7788100" lon="35.0233900">
<ele>270.860016</ele>
<time>2024-06-11T18:50:54.461Z</time>
</trkpt>
<trkpt lat="31.7786600" lon="35.0237200">
<ele>274.040009</ele>
<time>2024-06-11T18:50:54.461Z</time>
</trkpt>
<trkpt lat="31.7785900" lon="35.0238400">
<ele>272.950012</ele>
<time>2024-06-11T18:50:54.461Z</time>
</trkpt>
<trkpt lat="31.7780600" lon="35.0245400">
<ele>273.100006</ele>
<time>2024-06-11T18:50:54.461Z</time>
</trkpt>
<trkpt lat="31.7780100" lon="35.0246200">
<ele>274.139984</ele>
<time>2024-06-11T18:50:54.461Z</time>
</trkpt>
<trkpt lat="31.7779500" lon="35.0248000">
<ele>276.529999</ele>
<time>2024-06-11T18:50:54.461Z</time>
</trkpt>
<trkpt lat="31.7777600" lon="35.0256200">
<ele>280.589996</ele>
<time>2024-06-11T18:50:54.461Z</time>
</trkpt>
<trkpt lat="31.7776900" lon="35.0258000">
<ele>281.489990</ele>
<time>2024-06-11T18:50:54.461Z</time>
</trkpt>
<trkpt lat="31.7776300" lon="35.0258900">
<ele>281.880005</ele>
<time>2024-06-11T18:50:54.462Z</time>
</trkpt>
<trkpt lat="31.7773700" lon="35.0260800">
<ele>285.149994</ele>
<time>2024-06-11T18:50:54.462Z</time>
</trkpt>
<trkpt lat="31.7772600" lon="35.0261800">
<ele>288.410004</ele>
<time>2024-06-11T18:50:54.462Z</time>
</trkpt>
<trkpt lat="31.7772000" lon="35.0262700">
<ele>291.419983</ele>
<time>2024-06-11T18:50:54.462Z</time>
</trkpt>
<trkpt lat="31.7771700" lon="35.0263900">
<ele>294.269989</ele>
<time>2024-06-11T18:50:54.462Z</time>
</trkpt>
<trkpt lat="31.7771700" lon="35.0265600">
<ele>296.639984</ele>
<time>2024-06-11T18:50:54.462Z</time>
</trkpt>
<trkpt lat="31.7771700" lon="35.0266800">
<ele>298.320007</ele>
<time>2024-06-11T18:50:54.462Z</time>
</trkpt>
<trkpt lat="31.7772000" lon="35.0267900">
<ele>299.260010</ele>
<time>2024-06-11T18:50:54.462Z</time>
</trkpt>
<trkpt lat="31.7772500" lon="35.0269100">
<ele>300.589996</ele>
<time>2024-06-11T18:50:54.462Z</time>
</trkpt>
<trkpt lat="31.7773300" lon="35.0270400">
<ele>304.160004</ele>
<time>2024-06-11T18:50:54.462Z</time>
</trkpt>
<trkpt lat="31.7774100" lon="35.0271300">
<ele>306.100006</ele>
<time>2024-06-11T18:50:54.462Z</time>
</trkpt>
<trkpt lat="31.7775200" lon="35.0272000">
<ele>306.480011</ele>
<time>2024-06-11T18:50:54.462Z</time>
</trkpt>
<trkpt lat="31.7781400" lon="35.0274400">
<ele>312.720001</ele>
<time>2024-06-11T18:50:54.462Z</time>
</trkpt>
<trkpt lat="31.7781700" lon="35.0275200">
<ele>313.040009</ele>
<time>2024-06-11T18:50:54.462Z</time>
</trkpt>
<trkpt lat="31.7781800" lon="35.0275800">
<ele>312.579987</ele>
<time>2024-06-11T18:50:54.462Z</time>
</trkpt>
<trkpt lat="31.7781500" lon="35.0281800">
<ele>309.269989</ele>
<time>2024-06-11T18:50:54.462Z</time>
</trkpt>
<trkpt lat="31.7781400" lon="35.0296600">
<ele>310.730011</ele>
<time>2024-06-11T18:50:54.462Z</time>
</trkpt>
<trkpt lat="31.7781100" lon="35.0300400">
<ele>315.019989</ele>
<time>2024-06-11T18:50:54.462Z</time>
</trkpt>
<trkpt lat="31.7780600" lon="35.0302200">
<ele>317.730011</ele>
<time>2024-06-11T18:50:54.462Z</time>
</trkpt>
<trkpt lat="31.7778900" lon="35.0305600">
<ele>316.899994</ele>
<time>2024-06-11T18:50:54.462Z</time>
</trkpt>
<trkpt lat="31.7777500" lon="35.0307600">
<ele>313.769989</ele>
<time>2024-06-11T18:50:54.462Z</time>
</trkpt>
<trkpt lat="31.7776000" lon="35.0308500">
<ele>311.519989</ele>
<time>2024-06-11T18:50:54.463Z</time>
</trkpt>
<trkpt lat="31.7774600" lon="35.0309600">
<ele>312.189972</ele>
<time>2024-06-11T18:50:54.463Z</time>
</trkpt>
<trkpt lat="31.7773200" lon="35.0311500">
<ele>316.599976</ele>
<time>2024-06-11T18:50:54.463Z</time>
</trkpt>
<trkpt lat="31.7772400" lon="35.0313500">
<ele>319.820007</ele>
<time>2024-06-11T18:50:54.463Z</time>
</trkpt>
<trkpt lat="31.7772000" lon="35.0314900">
<ele>322.559998</ele>
<time>2024-06-11T18:50:54.463Z</time>
</trkpt>
<trkpt lat="31.7772000" lon="35.0314900">
<ele>322.559998</ele>
<time>2024-06-11T18:50:54.463Z</time>
</trkpt>
<trkpt lat="31.7771800" lon="35.0315500">
<ele>323.809998</ele>
<time>2024-06-11T18:50:54.463Z</time>
</trkpt>
<trkpt lat="31.7770300" lon="35.0318800">
<ele>325.309998</ele>
<time>2024-06-11T18:50:54.463Z</time>
</trkpt>
<trkpt lat="31.7771600" lon="35.0320800">
<ele>329.579987</ele>
<time>2024-06-11T18:50:54.463Z</time>
</trkpt>
<trkpt lat="31.7773200" lon="35.0322300">
<ele>332.470001</ele>
<time>2024-06-11T18:50:54.463Z</time>
</trkpt>
<trkpt lat="31.7774400" lon="35.0323500">
<ele>333.549988</ele>
<time>2024-06-11T18:50:54.463Z</time>
</trkpt>
<trkpt lat="31.7778200" lon="35.0327500">
<ele>330.849976</ele>
<time>2024-06-11T18:50:54.463Z</time>
</trkpt>
<trkpt lat="31.7779400" lon="35.0329300">
<ele>329.300018</ele>
<time>2024-06-11T18:50:54.463Z</time>
</trkpt>
<trkpt lat="31.7780500" lon="35.0331200">
<ele>326.619995</ele>
<time>2024-06-11T18:50:54.463Z</time>
</trkpt>
<trkpt lat="31.7785100" lon="35.0340200">
<ele>329.750000</ele>
<time>2024-06-11T18:50:54.463Z</time>
</trkpt>
<trkpt lat="31.7785900" lon="35.0341300">
<ele>330.079987</ele>
<time>2024-06-11T18:50:54.463Z</time>
</trkpt>
<trkpt lat="31.7788100" lon="35.0343600">
<ele>334.589996</ele>
<time>2024-06-11T18:50:54.463Z</time>
</trkpt>
<trkpt lat="31.7794600" lon="35.0349100">
<ele>333.030029</ele>
<time>2024-06-11T18:50:54.463Z</time>
</trkpt>
<trkpt lat="31.7795400" lon="35.0350000">
<ele>332.690033</ele>
<time>2024-06-11T18:50:54.463Z</time>
</trkpt>
<trkpt lat="31.7796300" lon="35.0351600">
<ele>334.489990</ele>
<time>2024-06-11T18:50:54.463Z</time>
</trkpt>
<trkpt lat="31.7796800" lon="35.0353200">
<ele>335.380005</ele>
<time>2024-06-11T18:50:54.463Z</time>
</trkpt>
<trkpt lat="31.7797100" lon="35.0354800">
<ele>333.920013</ele>
<time>2024-06-11T18:50:54.463Z</time>
</trkpt>
<trkpt lat="31.7797100" lon="35.0357700">
<ele>332.440002</ele>
<time>2024-06-11T18:50:54.463Z</time>
</trkpt>
<trkpt lat="31.7796800" lon="35.0360500">
<ele>332.880005</ele>
<time>2024-06-11T18:50:54.463Z</time>
</trkpt>
<trkpt lat="31.7796800" lon="35.0362100">
<ele>333.570007</ele>
<time>2024-06-11T18:50:54.464Z</time>
</trkpt>
<trkpt lat="31.7796400" lon="35.0364200">
<ele>335.890015</ele>
<time>2024-06-11T18:50:54.464Z</time>
</trkpt>
<trkpt lat="31.7796400" lon="35.0368700">
<ele>340.860016</ele>
<time>2024-06-11T18:50:54.464Z</time>
</trkpt>
<trkpt lat="31.7796600" lon="35.0370200">
<ele>341.509979</ele>
<time>2024-06-11T18:50:54.464Z</time>
</trkpt>
<trkpt lat="31.7798600" lon="35.0377100">
<ele>346.770020</ele>
<time>2024-06-11T18:50:54.464Z</time>
</trkpt>
<trkpt lat="31.7799300" lon="35.0378700">
<ele>347.750000</ele>
<time>2024-06-11T18:50:54.464Z</time>
</trkpt>
<trkpt lat="31.7801000" lon="35.0381200">
<ele>347.940002</ele>
<time>2024-06-11T18:50:54.464Z</time>
</trkpt>
<trkpt lat="31.7808700" lon="35.0391000">
<ele>352.819977</ele>
<time>2024-06-11T18:50:54.464Z</time>
</trkpt>
<trkpt lat="31.7809700" lon="35.0392000">
<ele>354.319977</ele>
<time>2024-06-11T18:50:54.464Z</time>
</trkpt>
<trkpt lat="31.7820800" lon="35.0401200">
<ele>370.000000</ele>
<time>2024-06-11T18:50:54.464Z</time>
</trkpt>
<trkpt lat="31.7822600" lon="35.0402300">
<ele>372.379974</ele>
<time>2024-06-11T18:50:54.464Z</time>
</trkpt>
<trkpt lat="31.7823700" lon="35.0402700">
<ele>371.670013</ele>
<time>2024-06-11T18:50:54.464Z</time>
</trkpt>
<trkpt lat="31.7825200" lon="35.0403000">
<ele>370.140015</ele>
<time>2024-06-11T18:50:54.464Z</time>
</trkpt>
<trkpt lat="31.7827400" lon="35.0403100">
<ele>364.130005</ele>
<time>2024-06-11T18:50:54.464Z</time>
</trkpt>
<trkpt lat="31.7829700" lon="35.0403700">
<ele>361.529999</ele>
<time>2024-06-11T18:50:54.464Z</time>
</trkpt>
<trkpt lat="31.7832400" lon="35.0404900">
<ele>362.549988</ele>
<time>2024-06-11T18:50:54.464Z</time>
</trkpt>
<trkpt lat="31.7835600" lon="35.0405900">
<ele>366.649994</ele>
<time>2024-06-11T18:50:54.464Z</time>
</trkpt>
<trkpt lat="31.7838600" lon="35.0407700">
<ele>373.279999</ele>
<time>2024-06-11T18:50:54.464Z</time>
</trkpt>
<trkpt lat="31.7839500" lon="35.0408400">
<ele>374.699982</ele>
<time>2024-06-11T18:50:54.464Z</time>
</trkpt>
<trkpt lat="31.7841100" lon="35.0410600">
<ele>378.299988</ele>
<time>2024-06-11T18:50:54.465Z</time>
</trkpt>
<trkpt lat="31.7846300" lon="35.0420400">
<ele>374.349976</ele>
<time>2024-06-11T18:50:54.465Z</time>
</trkpt>
<trkpt lat="31.7847200" lon="35.0422800">
<ele>372.880005</ele>
<time>2024-06-11T18:50:54.465Z</time>
</trkpt>
<trkpt lat="31.7847900" lon="35.0426300">
<ele>370.720001</ele>
<time>2024-06-11T18:50:54.465Z</time>
</trkpt>
<trkpt lat="31.7847900" lon="35.0431500">
<ele>377.429993</ele>
<time>2024-06-11T18:50:54.465Z</time>
</trkpt>
<trkpt lat="31.7848800" lon="35.0436900">
<ele>380.800018</ele>
<time>2024-06-11T18:50:54.465Z</time>
</trkpt>
<trkpt lat="31.7850000" lon="35.0441900">
<ele>379.750000</ele>
<time>2024-06-11T18:50:54.465Z</time>
</trkpt>
<trkpt lat="31.7850100" lon="35.0443500">
<ele>377.660004</ele>
<time>2024-06-11T18:50:54.465Z</time>
</trkpt>
<trkpt lat="31.7851300" lon="35.0452300">
<ele>373.950012</ele>
<time>2024-06-11T18:50:54.465Z</time>
</trkpt>
<trkpt lat="31.7852000" lon="35.0453900">
<ele>377.029999</ele>
<time>2024-06-11T18:50:54.465Z</time>
</trkpt>
<trkpt lat="31.7852600" lon="35.0457400">
<ele>377.980011</ele>
<time>2024-06-11T18:50:54.465Z</time>
</trkpt>
<trkpt lat="31.7852700" lon="35.0468900">
<ele>373.000000</ele>
<time>2024-06-11T18:50:54.465Z</time>
</trkpt>
<trkpt lat="31.7853200" lon="35.0472400">
<ele>374.720001</ele>
<time>2024-06-11T18:50:54.465Z</time>
</trkpt>
<trkpt lat="31.7854800" lon="35.0477100">
<ele>380.750000</ele>
<time>2024-06-11T18:50:54.465Z</time>
</trkpt>
<trkpt lat="31.7856800" lon="35.0481700">
<ele>382.250000</ele>
<time>2024-06-11T18:50:54.465Z</time>
</trkpt>
<trkpt lat="31.7858600" lon="35.0486300">
<ele>381.970001</ele>
<time>2024-06-11T18:50:54.465Z</time>
</trkpt>
<trkpt lat="31.7860200" lon="35.0495100">
<ele>392.220001</ele>
<time>2024-06-11T18:50:54.465Z</time>
</trkpt>
<trkpt lat="31.7860900" lon="35.0497800">
<ele>396.200012</ele>
<time>2024-06-11T18:50:54.465Z</time>
</trkpt>
<trkpt lat="31.7862600" lon="35.0502400">
<ele>396.869995</ele>
<time>2024-06-11T18:50:54.466Z</time>
</trkpt>
<trkpt lat="31.7862900" lon="35.0503600">
<ele>395.180023</ele>
<time>2024-06-11T18:50:54.466Z</time>
</trkpt>
<trkpt lat="31.7862900" lon="35.0506100">
<ele>390.290009</ele>
<time>2024-06-11T18:50:54.466Z</time>
</trkpt>
<trkpt lat="31.7861900" lon="35.0510900">
<ele>387.050018</ele>
<time>2024-06-11T18:50:54.466Z</time>
</trkpt>
<trkpt lat="31.7861700" lon="35.0512800">
<ele>387.610016</ele>
<time>2024-06-11T18:50:54.466Z</time>
</trkpt>
<trkpt lat="31.7861400" lon="35.0514900">
<ele>388.440002</ele>
<time>2024-06-11T18:50:54.466Z</time>
</trkpt>
<trkpt lat="31.7861800" lon="35.0520800">
<ele>392.589996</ele>
<time>2024-06-11T18:50:54.466Z</time>
</trkpt>
<trkpt lat="31.7862100" lon="35.0523200">
<ele>393.720001</ele>
<time>2024-06-11T18:50:54.466Z</time>
</trkpt>
<trkpt lat="31.7862100" lon="35.0524600">
<ele>393.210022</ele>
<time>2024-06-11T18:50:54.466Z</time>
</trkpt>
<trkpt lat="31.7862000" lon="35.0525600">
<ele>393.040009</ele>
<time>2024-06-11T18:50:54.466Z</time>
</trkpt>
<trkpt lat="31.7860400" lon="35.0530500">
<ele>395.570007</ele>
<time>2024-06-11T18:50:54.466Z</time>
</trkpt>
<trkpt lat="31.7858900" lon="35.0534300">
<ele>394.269989</ele>
<time>2024-06-11T18:50:54.466Z</time>
</trkpt>
<trkpt lat="31.7854300" lon="35.0543100">
<ele>389.289978</ele>
<time>2024-06-11T18:50:54.466Z</time>
</trkpt>
<trkpt lat="31.7852600" lon="35.0547800">
<ele>390.630005</ele>
<time>2024-06-11T18:50:54.466Z</time>
</trkpt>
<trkpt lat="31.7851400" lon="35.0552900">
<ele>398.500000</ele>
<time>2024-06-11T18:50:54.466Z</time>
</trkpt>
<trkpt lat="31.7850800" lon="35.0556200">
<ele>399.570007</ele>
<time>2024-06-11T18:50:54.466Z</time>
</trkpt>
<trkpt lat="31.7850900" lon="35.0557200">
<ele>400.199982</ele>
<time>2024-06-11T18:50:54.466Z</time>
</trkpt>
<trkpt lat="31.7851100" lon="35.0558900">
<ele>401.160004</ele>
<time>2024-06-11T18:50:54.466Z</time>
</trkpt>
<trkpt lat="31.7851200" lon="35.0561600">
<ele>401.959991</ele>
<time>2024-06-11T18:50:54.467Z</time>
</trkpt>
<trkpt lat="31.7851700" lon="35.0564600">
<ele>402.709991</ele>
<time>2024-06-11T18:50:54.467Z</time>
</trkpt>
<trkpt lat="31.7852200" lon="35.0565800">
<ele>402.939972</ele>
<time>2024-06-11T18:50:54.467Z</time>
</trkpt>
<trkpt lat="31.7853700" lon="35.0567600">
<ele>404.329987</ele>
<time>2024-06-11T18:50:54.467Z</time>
</trkpt>
<trkpt lat="31.7857100" lon="35.0570800">
<ele>405.970001</ele>
<time>2024-06-11T18:50:54.467Z</time>
</trkpt>
<trkpt lat="31.7858200" lon="35.0572300">
<ele>404.980011</ele>
<time>2024-06-11T18:50:54.467Z</time>
</trkpt>
<trkpt lat="31.7859300" lon="35.0574800">
<ele>408.700012</ele>
<time>2024-06-11T18:50:54.467Z</time>
</trkpt>
<trkpt lat="31.7859900" lon="35.0577100">
<ele>409.630005</ele>
<time>2024-06-11T18:50:54.467Z</time>
</trkpt>
<trkpt lat="31.7859900" lon="35.0578000">
<ele>408.970001</ele>
<time>2024-06-11T18:50:54.467Z</time>
</trkpt>
<trkpt lat="31.7859900" lon="35.0578400">
<ele>408.769989</ele>
<time>2024-06-11T18:50:54.467Z</time>
</trkpt>
<trkpt lat="31.7859900" lon="35.0578400">
<ele>408.769989</ele>
<time>2024-06-11T18:50:54.467Z</time>
</trkpt>
<trkpt lat="31.7859900" lon="35.0587000">
<ele>404.630005</ele>
<time>2024-06-11T18:50:54.467Z</time>
</trkpt>
<trkpt lat="31.7859200" lon="35.0591000">
<ele>401.610016</ele>
<time>2024-06-11T18:50:54.467Z</time>
</trkpt>
<trkpt lat="31.7859200" lon="35.0593700">
<ele>405.320007</ele>
<time>2024-06-11T18:50:54.467Z</time>
</trkpt>
<trkpt lat="31.7859400" lon="35.0595100">
<ele>408.100006</ele>
<time>2024-06-11T18:50:54.467Z</time>
</trkpt>
<trkpt lat="31.7861100" lon="35.0599400">
<ele>414.220001</ele>
<time>2024-06-11T18:50:54.467Z</time>
</trkpt>
<trkpt lat="31.7862500" lon="35.0602200">
<ele>421.099976</ele>
<time>2024-06-11T18:50:54.467Z</time>
</trkpt>
<trkpt lat="31.7866100" lon="35.0608300">
<ele>423.669983</ele>
<time>2024-06-11T18:50:54.467Z</time>
</trkpt>
<trkpt lat="31.7867500" lon="35.0611100">
<ele>423.309998</ele>
<time>2024-06-11T18:50:54.468Z</time>
</trkpt>
<trkpt lat="31.7868500" lon="35.0613600">
<ele>421.009979</ele>
<time>2024-06-11T18:50:54.468Z</time>
</trkpt>
<trkpt lat="31.7870200" lon="35.0618400">
<ele>419.420013</ele>
<time>2024-06-11T18:50:54.468Z</time>
</trkpt>
<trkpt lat="31.7871100" lon="35.0621100">
<ele>417.740021</ele>
<time>2024-06-11T18:50:54.468Z</time>
</trkpt>
<trkpt lat="31.7871900" lon="35.0626800">
<ele>417.529999</ele>
<time>2024-06-11T18:50:54.468Z</time>
</trkpt>
<trkpt lat="31.7871900" lon="35.0626800">
<ele>417.529999</ele>
<time>2024-06-11T18:50:54.468Z</time>
</trkpt>
<trkpt lat="31.7872000" lon="35.0626800">
<ele>417.150024</ele>
<time>2024-06-11T18:50:54.468Z</time>
</trkpt>
<trkpt lat="31.7872200" lon="35.0628400">
<ele>417.759979</ele>
<time>2024-06-11T18:50:54.468Z</time>
</trkpt>
<trkpt lat="31.7873100" lon="35.0632300">
<ele>420.630005</ele>
<time>2024-06-11T18:50:54.468Z</time>
</trkpt>
<trkpt lat="31.7873200" lon="35.0633800">
<ele>421.179993</ele>
<time>2024-06-11T18:50:54.468Z</time>
</trkpt>
<trkpt lat="31.7873200" lon="35.0634600">
<ele>421.479980</ele>
<time>2024-06-11T18:50:54.468Z</time>
</trkpt>
<trkpt lat="31.7872300" lon="35.0636500">
<ele>420.820007</ele>
<time>2024-06-11T18:50:54.468Z</time>
</trkpt>
<trkpt lat="31.7871200" lon="35.0638000">
<ele>419.139984</ele>
<time>2024-06-11T18:50:54.468Z</time>
</trkpt>
<trkpt lat="31.7870000" lon="35.0638800">
<ele>417.519989</ele>
<time>2024-06-11T18:50:54.468Z</time>
</trkpt>
<trkpt lat="31.7868500" lon="35.0639400">
<ele>417.450012</ele>
<time>2024-06-11T18:50:54.468Z</time>
</trkpt>
<trkpt lat="31.7859300" lon="35.0644600">
<ele>412.250000</ele>
<time>2024-06-11T18:50:54.468Z</time>
</trkpt>
<trkpt lat="31.7857600" lon="35.0645300">
<ele>413.210022</ele>
<time>2024-06-11T18:50:54.468Z</time>
</trkpt>
<trkpt lat="31.7856600" lon="35.0646100">
<ele>413.920013</ele>
<time>2024-06-11T18:50:54.468Z</time>
</trkpt>
<trkpt lat="31.7855400" lon="35.0647400">
<ele>414.130005</ele>
<time>2024-06-11T18:50:54.468Z</time>
</trkpt>
<trkpt lat="31.7850500" lon="35.0652100">
<ele>413.949982</ele>
<time>2024-06-11T18:50:54.468Z</time>
</trkpt>
<trkpt lat="31.7849000" lon="35.0653100">
<ele>415.750000</ele>
<time>2024-06-11T18:50:54.468Z</time>
</trkpt>
<trkpt lat="31.7847300" lon="35.0654800">
<ele>419.000000</ele>
<time>2024-06-11T18:50:54.469Z</time>
</trkpt>
<trkpt lat="31.7846600" lon="35.0655900">
<ele>421.909973</ele>
<time>2024-06-11T18:50:54.469Z</time>
</trkpt>
<trkpt lat="31.7845200" lon="35.0659100">
<ele>428.989990</ele>
<time>2024-06-11T18:50:54.469Z</time>
</trkpt>
<trkpt lat="31.7844700" lon="35.0661300">
<ele>430.630005</ele>
<time>2024-06-11T18:50:54.469Z</time>
</trkpt>
<trkpt lat="31.7843600" lon="35.0664000">
<ele>435.019989</ele>
<time>2024-06-11T18:50:54.469Z</time>
</trkpt>
<trkpt lat="31.7843400" lon="35.0665200">
<ele>436.309998</ele>
<time>2024-06-11T18:50:54.469Z</time>
</trkpt>
<trkpt lat="31.7843400" lon="35.0667300">
<ele>438.420013</ele>
<time>2024-06-11T18:50:54.469Z</time>
</trkpt>
<trkpt lat="31.7843500" lon="35.0667700">
<ele>438.910004</ele>
<time>2024-06-11T18:50:54.469Z</time>
</trkpt>
<trkpt lat="31.7843500" lon="35.0667700">
<ele>438.910004</ele>
<time>2024-06-11T18:50:54.469Z</time>
</trkpt>
<trkpt lat="31.7843500" lon="35.0668300">
<ele>439.639984</ele>
<time>2024-06-11T18:50:54.469Z</time>
</trkpt>
<trkpt lat="31.7844000" lon="35.0669500">
<ele>440.589996</ele>
<time>2024-06-11T18:50:54.469Z</time>
</trkpt>
<trkpt lat="31.7844800" lon="35.0670800">
<ele>442.380005</ele>
<time>2024-06-11T18:50:54.469Z</time>
</trkpt>
<trkpt lat="31.7846900" lon="35.0672400">
<ele>443.449982</ele>
<time>2024-06-11T18:50:54.469Z</time>
</trkpt>
<trkpt lat="31.7848200" lon="35.0673100">
<ele>444.779999</ele>
<time>2024-06-11T18:50:54.469Z</time>
</trkpt>
<trkpt lat="31.7851800" lon="35.0673600">
<ele>443.579987</ele>
<time>2024-06-11T18:50:54.469Z</time>
</trkpt>
<trkpt lat="31.7854200" lon="35.0673200">
<ele>440.980011</ele>
<time>2024-06-11T18:50:54.469Z</time>
</trkpt>
<trkpt lat="31.7855100" lon="35.0673000">
<ele>440.619995</ele>
<time>2024-06-11T18:50:54.469Z</time>
</trkpt>
<trkpt lat="31.7857000" lon="35.0672300">
<ele>443.019989</ele>
<time>2024-06-11T18:50:54.469Z</time>
</trkpt>
<trkpt lat="31.7857700" lon="35.0672100">
<ele>444.120026</ele>
<time>2024-06-11T18:50:54.469Z</time>
</trkpt>
<trkpt lat="31.7858800" lon="35.0672200">
<ele>445.510010</ele>
<time>2024-06-11T18:50:54.469Z</time>
</trkpt>
<trkpt lat="31.7859600" lon="35.0672600">
<ele>446.219971</ele>
<time>2024-06-11T18:50:54.469Z</time>
</trkpt>
<trkpt lat="31.7860100" lon="35.0673200">
<ele>446.649994</ele>
<time>2024-06-11T18:50:54.469Z</time>
</trkpt>
<trkpt lat="31.7860800" lon="35.0674600">
<ele>447.470001</ele>
<time>2024-06-11T18:50:54.469Z</time>
</trkpt>
<trkpt lat="31.7861600" lon="35.0677800">
<ele>447.220001</ele>
<time>2024-06-11T18:50:54.470Z</time>
</trkpt>
<trkpt lat="31.7861700" lon="35.0678800">
<ele>446.980011</ele>
<time>2024-06-11T18:50:54.470Z</time>
</trkpt>
<trkpt lat="31.7861600" lon="35.0679700">
<ele>446.210022</ele>
<time>2024-06-11T18:50:54.470Z</time>
</trkpt>
<trkpt lat="31.7857000" lon="35.0691800">
<ele>446.119995</ele>
<time>2024-06-11T18:50:54.470Z</time>
</trkpt>
<trkpt lat="31.7856200" lon="35.0696600">
<ele>446.540009</ele>
<time>2024-06-11T18:50:54.470Z</time>
</trkpt>
<trkpt lat="31.7856100" lon="35.0697900">
<ele>447.760010</ele>
<time>2024-06-11T18:50:54.470Z</time>
</trkpt>
<trkpt lat="31.7856200" lon="35.0698500">
<ele>448.650024</ele>
<time>2024-06-11T18:50:54.470Z</time>
</trkpt>
<trkpt lat="31.7857400" lon="35.0701000">
<ele>455.259979</ele>
<time>2024-06-11T18:50:54.470Z</time>
</trkpt>
<trkpt lat="31.7858600" lon="35.0701600">
<ele>458.540009</ele>
<time>2024-06-11T18:50:54.470Z</time>
</trkpt>
<trkpt lat="31.7859200" lon="35.0702700">
<ele>460.850006</ele>
<time>2024-06-11T18:50:54.470Z</time>
</trkpt>
<trkpt lat="31.7860200" lon="35.0703200">
<ele>461.910004</ele>
<time>2024-06-11T18:50:54.470Z</time>
</trkpt>
<trkpt lat="31.7862000" lon="35.0704700">
<ele>463.479980</ele>
<time>2024-06-11T18:50:54.470Z</time>
</trkpt>
<trkpt lat="31.7863000" lon="35.0704900">
<ele>462.579987</ele>
<time>2024-06-11T18:50:54.470Z</time>
</trkpt>
<trkpt lat="31.7865200" lon="35.0705600">
<ele>461.609985</ele>
<time>2024-06-11T18:50:54.470Z</time>
</trkpt>
<trkpt lat="31.7868600" lon="35.0705600">
<ele>458.259979</ele>
<time>2024-06-11T18:50:54.470Z</time>
</trkpt>
<trkpt lat="31.7870200" lon="35.0705300">
<ele>456.559998</ele>
<time>2024-06-11T18:50:54.470Z</time>
</trkpt>
<trkpt lat="31.7872900" lon="35.0704900">
<ele>455.059998</ele>
<time>2024-06-11T18:50:54.470Z</time>
</trkpt>
<trkpt lat="31.7872900" lon="35.0704900">
<ele>455.059998</ele>
<time>2024-06-11T18:50:54.470Z</time>
</trkpt>
<trkpt lat="31.7872900" lon="35.0704900">
<ele>455.059998</ele>
<time>2024-06-11T18:50:54.470Z</time>
</trkpt>
<trkpt lat="31.7874700" lon="35.0704600">
<ele>455.240021</ele>
<time>2024-06-11T18:50:54.470Z</time>
</trkpt>
<trkpt lat="31.7874700" lon="35.0704600">
<ele>455.240021</ele>
<time>2024-06-11T18:50:54.470Z</time>
</trkpt>
<trkpt lat="31.7883000" lon="35.0703400">
<ele>459.559998</ele>
<time>2024-06-11T18:50:54.470Z</time>
</trkpt>
<trkpt lat="31.7884300" lon="35.0703000">
<ele>460.600006</ele>
<time>2024-06-11T18:50:54.471Z</time>
</trkpt>
<trkpt lat="31.7885200" lon="35.0703200">
<ele>460.389984</ele>
<time>2024-06-11T18:50:54.471Z</time>
</trkpt>
<trkpt lat="31.7885900" lon="35.0703500">
<ele>460.160004</ele>
<time>2024-06-11T18:50:54.471Z</time>
</trkpt>
<trkpt lat="31.7887000" lon="35.0704300">
<ele>460.320007</ele>
<time>2024-06-11T18:50:54.471Z</time>
</trkpt>
<trkpt lat="31.7887600" lon="35.0705300">
<ele>459.879974</ele>
<time>2024-06-11T18:50:54.471Z</time>
</trkpt>
<trkpt lat="31.7887900" lon="35.0706700">
<ele>459.520020</ele>
<time>2024-06-11T18:50:54.471Z</time>
</trkpt>
<trkpt lat="31.7888300" lon="35.0709500">
<ele>459.029999</ele>
<time>2024-06-11T18:50:54.471Z</time>
</trkpt>
<trkpt lat="31.7887800" lon="35.0713400">
<ele>459.360016</ele>
<time>2024-06-11T18:50:54.471Z</time>
</trkpt>
<trkpt lat="31.7887200" lon="35.0719400">
<ele>463.179993</ele>
<time>2024-06-11T18:50:54.471Z</time>
</trkpt>
<trkpt lat="31.7887900" lon="35.0722500">
<ele>465.149994</ele>
<time>2024-06-11T18:50:54.471Z</time>
</trkpt>
<trkpt lat="31.7888400" lon="35.0723500">
<ele>466.269989</ele>
<time>2024-06-11T18:50:54.471Z</time>
</trkpt>
<trkpt lat="31.7889300" lon="35.0725000">
<ele>468.439972</ele>
<time>2024-06-11T18:50:54.471Z</time>
</trkpt>
<trkpt lat="31.7890200" lon="35.0726000">
<ele>472.450012</ele>
<time>2024-06-11T18:50:54.471Z</time>
</trkpt>
<trkpt lat="31.7893700" lon="35.0728800">
<ele>485.900024</ele>
<time>2024-06-11T18:50:54.471Z</time>
</trkpt>
<trkpt lat="31.7896000" lon="35.0730400">
<ele>488.589996</ele>
<time>2024-06-11T18:50:54.471Z</time>
</trkpt>
<trkpt lat="31.7897800" lon="35.0731400">
<ele>486.110016</ele>
<time>2024-06-11T18:50:54.471Z</time>
</trkpt>
<trkpt lat="31.7898800" lon="35.0732100">
<ele>483.979980</ele>
<time>2024-06-11T18:50:54.471Z</time>
</trkpt>
<trkpt lat="31.7900400" lon="35.0733800">
<ele>479.619995</ele>
<time>2024-06-11T18:50:54.471Z</time>
</trkpt>
<trkpt lat="31.7901700" lon="35.0735600">
<ele>480.059998</ele>
<time>2024-06-11T18:50:54.471Z</time>
</trkpt>
<trkpt lat="31.7904600" lon="35.0738500">
<ele>482.229980</ele>
<time>2024-06-11T18:50:54.471Z</time>
</trkpt>
<trkpt lat="31.7908000" lon="35.0741400">
<ele>479.199982</ele>
<time>2024-06-11T18:50:54.471Z</time>
</trkpt>
<trkpt lat="31.7910300" lon="35.0742600">
<ele>476.050018</ele>
<time>2024-06-11T18:50:54.471Z</time>
</trkpt>
<trkpt lat="31.7911600" lon="35.0743500">
<ele>475.130005</ele>
<time>2024-06-11T18:50:54.471Z</time>
</trkpt>
<trkpt lat="31.7912900" lon="35.0744600">
<ele>474.040009</ele>
<time>2024-06-11T18:50:54.471Z</time>
</trkpt>
<trkpt lat="31.7913500" lon="35.0745600">
<ele>473.000000</ele>
<time>2024-06-11T18:50:54.472Z</time>
</trkpt>
<trkpt lat="31.7913900" lon="35.0747000">
<ele>471.359985</ele>
<time>2024-06-11T18:50:54.472Z</time>
</trkpt>
<trkpt lat="31.7913500" lon="35.0749500">
<ele>468.709991</ele>
<time>2024-06-11T18:50:54.472Z</time>
</trkpt>
<trkpt lat="31.7912800" lon="35.0751100">
<ele>467.679993</ele>
<time>2024-06-11T18:50:54.472Z</time>
</trkpt>
<trkpt lat="31.7912100" lon="35.0751900">
<ele>466.709991</ele>
<time>2024-06-11T18:50:54.472Z</time>
</trkpt>
<trkpt lat="31.7908300" lon="35.0754000">
<ele>465.600006</ele>
<time>2024-06-11T18:50:54.472Z</time>
</trkpt>
<trkpt lat="31.7899900" lon="35.0758300">
<ele>473.119995</ele>
<time>2024-06-11T18:50:54.472Z</time>
</trkpt>
<trkpt lat="31.7897900" lon="35.0759500">
<ele>474.940002</ele>
<time>2024-06-11T18:50:54.472Z</time>
</trkpt>
<trkpt lat="31.7896200" lon="35.0760700">
<ele>474.730011</ele>
<time>2024-06-11T18:50:54.472Z</time>
</trkpt>
<trkpt lat="31.7889400" lon="35.0767800">
<ele>474.859985</ele>
<time>2024-06-11T18:50:54.472Z</time>
</trkpt>
<trkpt lat="31.7885900" lon="35.0773700">
<ele>482.799988</ele>
<time>2024-06-11T18:50:54.472Z</time>
</trkpt>
<trkpt lat="31.7885400" lon="35.0775300">
<ele>485.829987</ele>
<time>2024-06-11T18:50:54.472Z</time>
</trkpt>
<trkpt lat="31.7885300" lon="35.0776500">
<ele>487.209991</ele>
<time>2024-06-11T18:50:54.472Z</time>
</trkpt>
<trkpt lat="31.7885500" lon="35.0779800">
<ele>488.100006</ele>
<time>2024-06-11T18:50:54.472Z</time>
</trkpt>
<trkpt lat="31.7886100" lon="35.0781300">
<ele>487.290009</ele>
<time>2024-06-11T18:50:54.472Z</time>
</trkpt>
<trkpt lat="31.7886600" lon="35.0783400">
<ele>487.879974</ele>
<time>2024-06-11T18:50:54.472Z</time>
</trkpt>
<trkpt lat="31.7888100" lon="35.0788300">
<ele>486.859985</ele>
<time>2024-06-11T18:50:54.472Z</time>
</trkpt>
<trkpt lat="31.7888900" lon="35.0789800">
<ele>486.330017</ele>
<time>2024-06-11T18:50:54.472Z</time>
</trkpt>
<trkpt lat="31.7889700" lon="35.0790900">
<ele>488.720001</ele>
<time>2024-06-11T18:50:54.472Z</time>
</trkpt>
<trkpt lat="31.7890300" lon="35.0791400">
<ele>489.779999</ele>
<time>2024-06-11T18:50:54.472Z</time>
</trkpt>
<trkpt lat="31.7891600" lon="35.0792100">
<ele>491.750000</ele>
<time>2024-06-11T18:50:54.472Z</time>
</trkpt>
<trkpt lat="31.7893800" lon="35.0792800">
<ele>493.640015</ele>
<time>2024-06-11T18:50:54.472Z</time>
</trkpt>
<trkpt lat="31.7898400" lon="35.0793900">
<ele>499.859985</ele>
<time>2024-06-11T18:50:54.472Z</time>
</trkpt>
<trkpt lat="31.7902300" lon="35.0794400">
<ele>506.209991</ele>
<time>2024-06-11T18:50:54.473Z</time>
</trkpt>
<trkpt lat="31.7904900" lon="35.0794900">
<ele>503.869995</ele>
<time>2024-06-11T18:50:54.473Z</time>
</trkpt>
<trkpt lat="31.7908000" lon="35.0795800">
<ele>503.450012</ele>
<time>2024-06-11T18:50:54.473Z</time>
</trkpt>
<trkpt lat="31.7909200" lon="35.0796400">
<ele>503.079987</ele>
<time>2024-06-11T18:50:54.473Z</time>
</trkpt>
<trkpt lat="31.7910600" lon="35.0797500">
<ele>502.709991</ele>
<time>2024-06-11T18:50:54.473Z</time>
</trkpt>
<trkpt lat="31.7913000" lon="35.0799300">
<ele>502.580017</ele>
<time>2024-06-11T18:50:54.473Z</time>
</trkpt>
<trkpt lat="31.7917800" lon="35.0802700">
<ele>503.610016</ele>
<time>2024-06-11T18:50:54.473Z</time>
</trkpt>
<trkpt lat="31.7919800" lon="35.0803800">
<ele>504.279999</ele>
<time>2024-06-11T18:50:54.473Z</time>
</trkpt>
<trkpt lat="31.7922800" lon="35.0805000">
<ele>502.790009</ele>
<time>2024-06-11T18:50:54.473Z</time>
</trkpt>
<trkpt lat="31.7925200" lon="35.0805300">
<ele>501.740021</ele>
<time>2024-06-11T18:50:54.473Z</time>
</trkpt>
<trkpt lat="31.7927900" lon="35.0805000">
<ele>499.019989</ele>
<time>2024-06-11T18:50:54.473Z</time>
</trkpt>
<trkpt lat="31.7933300" lon="35.0804600">
<ele>508.979980</ele>
<time>2024-06-11T18:50:54.473Z</time>
</trkpt>
<trkpt lat="31.7935800" lon="35.0804700">
<ele>513.089966</ele>
<time>2024-06-11T18:50:54.473Z</time>
</trkpt>
<trkpt lat="31.7936900" lon="35.0804900">
<ele>513.270020</ele>
<time>2024-06-11T18:50:54.473Z</time>
</trkpt>
<trkpt lat="31.7942600" lon="35.0807800">
<ele>511.160004</ele>
<time>2024-06-11T18:50:54.473Z</time>
</trkpt>
<trkpt lat="31.7944100" lon="35.0809100">
<ele>512.510010</ele>
<time>2024-06-11T18:50:54.473Z</time>
</trkpt>
<trkpt lat="31.7945000" lon="35.0810600">
<ele>512.309998</ele>
<time>2024-06-11T18:50:54.473Z</time>
</trkpt>
<trkpt lat="31.7947100" lon="35.0812700">
<ele>512.359985</ele>
<time>2024-06-11T18:50:54.473Z</time>
</trkpt>
<trkpt lat="31.7948700" lon="35.0814000">
<ele>511.959991</ele>
<time>2024-06-11T18:50:54.473Z</time>
</trkpt>
<trkpt lat="31.7950400" lon="35.0815800">
<ele>511.209991</ele>
<time>2024-06-11T18:50:54.473Z</time>
</trkpt>
<trkpt lat="31.7951000" lon="35.0816800">
<ele>510.660004</ele>
<time>2024-06-11T18:50:54.473Z</time>
</trkpt>
<trkpt lat="31.7951300" lon="35.0817700">
<ele>510.860016</ele>
<time>2024-06-11T18:50:54.474Z</time>
</trkpt>
<trkpt lat="31.7951400" lon="35.0819800">
<ele>511.700012</ele>
<time>2024-06-11T18:50:54.474Z</time>
</trkpt>
<trkpt lat="31.7952100" lon="35.0822600">
<ele>513.789978</ele>
<time>2024-06-11T18:50:54.474Z</time>
</trkpt>
<trkpt lat="31.7951900" lon="35.0827800">
<ele>510.660004</ele>
<time>2024-06-11T18:50:54.474Z</time>
</trkpt>
<trkpt lat="31.7951800" lon="35.0828700">
<ele>509.769989</ele>
<time>2024-06-11T18:50:54.474Z</time>
</trkpt>
<trkpt lat="31.7950800" lon="35.0836600">
<ele>508.089996</ele>
<time>2024-06-11T18:50:54.474Z</time>
</trkpt>
<trkpt lat="31.7950100" lon="35.0839700">
<ele>508.690002</ele>
<time>2024-06-11T18:50:54.474Z</time>
</trkpt>
<trkpt lat="31.7948900" lon="35.0843800">
<ele>506.720001</ele>
<time>2024-06-11T18:50:54.474Z</time>
</trkpt>
<trkpt lat="31.7946300" lon="35.0855700">
<ele>508.720032</ele>
<time>2024-06-11T18:50:54.474Z</time>
</trkpt>
<trkpt lat="31.7945900" lon="35.0858500">
<ele>509.520020</ele>
<time>2024-06-11T18:50:54.474Z</time>
</trkpt>
<trkpt lat="31.7946000" lon="35.0859900">
<ele>509.559998</ele>
<time>2024-06-11T18:50:54.474Z</time>
</trkpt>
<trkpt lat="31.7946400" lon="35.0860500">
<ele>509.700012</ele>
<time>2024-06-11T18:50:54.474Z</time>
</trkpt>
<trkpt lat="31.7947000" lon="35.0860800">
<ele>509.919983</ele>
<time>2024-06-11T18:50:54.474Z</time>
</trkpt>
<trkpt lat="31.7947900" lon="35.0860700">
<ele>511.150024</ele>
<time>2024-06-11T18:50:54.474Z</time>
</trkpt>
<trkpt lat="31.7948600" lon="35.0860700">
<ele>512.330017</ele>
<time>2024-06-11T18:50:54.474Z</time>
</trkpt>
<trkpt lat="31.7949100" lon="35.0858800">
<ele>512.260010</ele>
<time>2024-06-11T18:50:54.474Z</time>
</trkpt>
<trkpt lat="31.7949300" lon="35.0858300">
<ele>512.210022</ele>
<time>2024-06-11T18:50:54.474Z</time>
</trkpt>
<trkpt lat="31.7949400" lon="35.0858300">
<ele>512.309998</ele>
<time>2024-06-11T18:50:54.474Z</time>
</trkpt>
<trkpt lat="31.7950900" lon="35.0853900">
<ele>508.930023</ele>
<time>2024-06-11T18:50:54.475Z</time>
</trkpt>
<trkpt lat="31.7951300" lon="35.0852500">
<ele>507.940002</ele>
<time>2024-06-11T18:50:54.475Z</time>
</trkpt>
<trkpt lat="31.7952000" lon="35.0851000">
<ele>508.100006</ele>
<time>2024-06-11T18:50:54.475Z</time>
</trkpt>
<trkpt lat="31.7952700" lon="35.0849700">
<ele>508.700012</ele>
<time>2024-06-11T18:50:54.475Z</time>
</trkpt>
<trkpt lat="31.7954200" lon="35.0847500">
<ele>510.730011</ele>
<time>2024-06-11T18:50:54.475Z</time>
</trkpt>
<trkpt lat="31.7958000" lon="35.0843500">
<ele>517.900024</ele>
<time>2024-06-11T18:50:54.475Z</time>
</trkpt>
<trkpt lat="31.7958900" lon="35.0842200">
<ele>518.919983</ele>
<time>2024-06-11T18:50:54.475Z</time>
</trkpt>
<trkpt lat="31.7959700" lon="35.0840600">
<ele>519.659973</ele>
<time>2024-06-11T18:50:54.475Z</time>
</trkpt>
<trkpt lat="31.7959900" lon="35.0839500">
<ele>520.130005</ele>
<time>2024-06-11T18:50:54.475Z</time>
</trkpt>
<trkpt lat="31.7960700" lon="35.0832600">
<ele>517.809998</ele>
<time>2024-06-11T18:50:54.475Z</time>
</trkpt>
<trkpt lat="31.7960700" lon="35.0832200">
<ele>517.790039</ele>
<time>2024-06-11T18:50:54.475Z</time>
</trkpt>
<trkpt lat="31.7960800" lon="35.0829700">
<ele>518.320007</ele>
<time>2024-06-11T18:50:54.475Z</time>
</trkpt>
<trkpt lat="31.7960900" lon="35.0827400">
<ele>520.250000</ele>
<time>2024-06-11T18:50:54.475Z</time>
</trkpt>
<trkpt lat="31.7961000" lon="35.0824200">
<ele>525.020020</ele>
<time>2024-06-11T18:50:54.475Z</time>
</trkpt>
<trkpt lat="31.7961100" lon="35.0821400">
<ele>528.570007</ele>
<time>2024-06-11T18:50:54.475Z</time>
</trkpt>
<trkpt lat="31.7963300" lon="35.0811800">
<ele>526.659973</ele>
<time>2024-06-11T18:50:54.475Z</time>
</trkpt>
<trkpt lat="31.7963900" lon="35.0810400">
<ele>528.029968</ele>
<time>2024-06-11T18:50:54.475Z</time>
</trkpt>
<trkpt lat="31.7965500" lon="35.0807500">
<ele>532.380005</ele>
<time>2024-06-11T18:50:54.475Z</time>
</trkpt>
<trkpt lat="31.7965700" lon="35.0806300">
<ele>534.109985</ele>
<time>2024-06-11T18:50:54.475Z</time>
</trkpt>
<trkpt lat="31.7965800" lon="35.0805000">
<ele>535.989990</ele>
<time>2024-06-11T18:50:54.475Z</time>
</trkpt>
<trkpt lat="31.7965700" lon="35.0802100">
<ele>540.480042</ele>
<time>2024-06-11T18:50:54.476Z</time>
</trkpt>
<trkpt lat="31.7965700" lon="35.0796900">
<ele>550.059998</ele>
<time>2024-06-11T18:50:54.476Z</time>
</trkpt>
<trkpt lat="31.7965600" lon="35.0795100">
<ele>552.549988</ele>
<time>2024-06-11T18:50:54.476Z</time>
</trkpt>
<trkpt lat="31.7964500" lon="35.0787800">
<ele>554.789978</ele>
<time>2024-06-11T18:50:54.476Z</time>
</trkpt>
<trkpt lat="31.7963600" lon="35.0786400">
<ele>554.760010</ele>
<time>2024-06-11T18:50:54.476Z</time>
</trkpt>
<trkpt lat="31.7962700" lon="35.0785600">
<ele>556.049988</ele>
<time>2024-06-11T18:50:54.476Z</time>
</trkpt>
<trkpt lat="31.7958400" lon="35.0782400">
<ele>562.320007</ele>
<time>2024-06-11T18:50:54.476Z</time>
</trkpt>
<trkpt lat="31.7957500" lon="35.0781900">
<ele>562.760010</ele>
<time>2024-06-11T18:50:54.476Z</time>
</trkpt>
<trkpt lat="31.7956600" lon="35.0781600">
<ele>562.869995</ele>
<time>2024-06-11T18:50:54.476Z</time>
</trkpt>
<trkpt lat="31.7951700" lon="35.0779900">
<ele>561.469971</ele>
<time>2024-06-11T18:50:54.476Z</time>
</trkpt>
<trkpt lat="31.7945900" lon="35.0778800">
<ele>556.029968</ele>
<time>2024-06-11T18:50:54.476Z</time>
</trkpt>
<trkpt lat="31.7945200" lon="35.0778500">
<ele>556.049988</ele>
<time>2024-06-11T18:50:54.476Z</time>
</trkpt>
<trkpt lat="31.7943900" lon="35.0778000">
<ele>555.750000</ele>
<time>2024-06-11T18:50:54.476Z</time>
</trkpt>
<trkpt lat="31.7940700" lon="35.0777400">
<ele>552.820007</ele>
<time>2024-06-11T18:50:54.476Z</time>
</trkpt>
<trkpt lat="31.7938700" lon="35.0777100">
<ele>551.440002</ele>
<time>2024-06-11T18:50:54.476Z</time>
</trkpt>
<trkpt lat="31.7936500" lon="35.0777000">
<ele>548.520020</ele>
<time>2024-06-11T18:50:54.476Z</time>
</trkpt>
<trkpt lat="31.7934200" lon="35.0776800">
<ele>548.019958</ele>
<time>2024-06-11T18:50:54.476Z</time>
</trkpt>
<trkpt lat="31.7932200" lon="35.0775900">
<ele>550.660034</ele>
<time>2024-06-11T18:50:54.476Z</time>
</trkpt>
<trkpt lat="31.7928900" lon="35.0773400">
<ele>555.059998</ele>
<time>2024-06-11T18:50:54.476Z</time>
</trkpt>
<trkpt lat="31.7927800" lon="35.0772100">
<ele>556.000000</ele>
<time>2024-06-11T18:50:54.476Z</time>
</trkpt>
<trkpt lat="31.7927200" lon="35.0770400">
<ele>554.690002</ele>
<time>2024-06-11T18:50:54.476Z</time>
</trkpt>
<trkpt lat="31.7927000" lon="35.0769200">
<ele>553.799988</ele>
<time>2024-06-11T18:50:54.476Z</time>
</trkpt>
<trkpt lat="31.7927000" lon="35.0767800">
<ele>552.429993</ele>
<time>2024-06-11T18:50:54.477Z</time>
</trkpt>
<trkpt lat="31.7926900" lon="35.0766000">
<ele>550.309998</ele>
<time>2024-06-11T18:50:54.477Z</time>
</trkpt>
<trkpt lat="31.7927100" lon="35.0764600">
<ele>549.119995</ele>
<time>2024-06-11T18:50:54.477Z</time>
</trkpt>
<trkpt lat="31.7929700" lon="35.0757200">
<ele>543.139954</ele>
<time>2024-06-11T18:50:54.477Z</time>
</trkpt>
<trkpt lat="31.7931100" lon="35.0753000">
<ele>546.020020</ele>
<time>2024-06-11T18:50:54.477Z</time>
</trkpt>
<trkpt lat="31.7931100" lon="35.0751900">
<ele>547.540039</ele>
<time>2024-06-11T18:50:54.477Z</time>
</trkpt>
<trkpt lat="31.7931100" lon="35.0751100">
<ele>548.979980</ele>
<time>2024-06-11T18:50:54.477Z</time>
</trkpt>
<trkpt lat="31.7930700" lon="35.0749800">
<ele>549.960022</ele>
<time>2024-06-11T18:50:54.477Z</time>
</trkpt>
<trkpt lat="31.7930100" lon="35.0749000">
<ele>549.399963</ele>
<time>2024-06-11T18:50:54.477Z</time>
</trkpt>
<trkpt lat="31.7929300" lon="35.0747900">
<ele>548.330017</ele>
<time>2024-06-11T18:50:54.477Z</time>
</trkpt>
<trkpt lat="31.7926600" lon="35.0743400">
<ele>545.570007</ele>
<time>2024-06-11T18:50:54.477Z</time>
</trkpt>
<trkpt lat="31.7923300" lon="35.0738700">
<ele>542.630005</ele>
<time>2024-06-11T18:50:54.477Z</time>
</trkpt>
<trkpt lat="31.7922300" lon="35.0737600">
<ele>540.659973</ele>
<time>2024-06-11T18:50:54.477Z</time>
</trkpt>
<trkpt lat="31.7917400" lon="35.0733100">
<ele>543.340027</ele>
<time>2024-06-11T18:50:54.477Z</time>
</trkpt>
<trkpt lat="31.7915600" lon="35.0731100">
<ele>544.970032</ele>
<time>2024-06-11T18:50:54.477Z</time>
</trkpt>
<trkpt lat="31.7914900" lon="35.0730100">
<ele>545.279968</ele>
<time>2024-06-11T18:50:54.477Z</time>
</trkpt>
<trkpt lat="31.7910700" lon="35.0722800">
<ele>545.900024</ele>
<time>2024-06-11T18:50:54.477Z</time>
</trkpt>
<trkpt lat="31.7905600" lon="35.0714800">
<ele>549.130005</ele>
<time>2024-06-11T18:50:54.477Z</time>
</trkpt>
<trkpt lat="31.7905100" lon="35.0713200">
<ele>548.200012</ele>
<time>2024-06-11T18:50:54.477Z</time>
</trkpt>
<trkpt lat="31.7905100" lon="35.0712300">
<ele>548.200012</ele>
<time>2024-06-11T18:50:54.477Z</time>
</trkpt>
<trkpt lat="31.7905000" lon="35.0710400">
<ele>548.059998</ele>
<time>2024-06-11T18:50:54.477Z</time>
</trkpt>
<trkpt lat="31.7905100" lon="35.0704500">
<ele>550.030029</ele>
<time>2024-06-11T18:50:54.477Z</time>
</trkpt>
<trkpt lat="31.7905100" lon="35.0702400">
<ele>551.149963</ele>
<time>2024-06-11T18:50:54.477Z</time>
</trkpt>
<trkpt lat="31.7904800" lon="35.0699600">
<ele>552.970032</ele>
<time>2024-06-11T18:50:54.478Z</time>
</trkpt>
<trkpt lat="31.7904100" lon="35.0697200">
<ele>554.330017</ele>
<time>2024-06-11T18:50:54.478Z</time>
</trkpt>
<trkpt lat="31.7903500" lon="35.0695800">
<ele>554.669983</ele>
<time>2024-06-11T18:50:54.478Z</time>
</trkpt>
<trkpt lat="31.7901700" lon="35.0693600">
<ele>553.100037</ele>
<time>2024-06-11T18:50:54.478Z</time>
</trkpt>
<trkpt lat="31.7895400" lon="35.0687000">
<ele>563.720032</ele>
<time>2024-06-11T18:50:54.478Z</time>
</trkpt>
<trkpt lat="31.7892100" lon="35.0683100">
<ele>559.950012</ele>
<time>2024-06-11T18:50:54.478Z</time>
</trkpt>
<trkpt lat="31.7891500" lon="35.0681200">
<ele>558.609985</ele>
<time>2024-06-11T18:50:54.478Z</time>
</trkpt>
<trkpt lat="31.7891400" lon="35.0679900">
<ele>558.169983</ele>
<time>2024-06-11T18:50:54.478Z</time>
</trkpt>
<trkpt lat="31.7891400" lon="35.0679000">
<ele>557.809998</ele>
<time>2024-06-11T18:50:54.478Z</time>
</trkpt>
<trkpt lat="31.7891700" lon="35.0676800">
<ele>557.359985</ele>
<time>2024-06-11T18:50:54.478Z</time>
</trkpt>
<trkpt lat="31.7896000" lon="35.0668800">
<ele>561.479980</ele>
<time>2024-06-11T18:50:54.478Z</time>
</trkpt>
<trkpt lat="31.7898900" lon="35.0662600">
<ele>573.239990</ele>
<time>2024-06-11T18:50:54.478Z</time>
</trkpt>
<trkpt lat="31.7899600" lon="35.0660500">
<ele>576.230042</ele>
<time>2024-06-11T18:50:54.478Z</time>
</trkpt>
<trkpt lat="31.7899900" lon="35.0657800">
<ele>574.260010</ele>
<time>2024-06-11T18:50:54.478Z</time>
</trkpt>
<trkpt lat="31.7900200" lon="35.0654300">
<ele>574.869995</ele>
<time>2024-06-11T18:50:54.478Z</time>
</trkpt>
<trkpt lat="31.7900200" lon="35.0643400">
<ele>575.899963</ele>
<time>2024-06-11T18:50:54.478Z</time>
</trkpt>
<trkpt lat="31.7900700" lon="35.0639100">
<ele>574.649963</ele>
<time>2024-06-11T18:50:54.478Z</time>
</trkpt>
<trkpt lat="31.7901900" lon="35.0633700">
<ele>579.299988</ele>
<time>2024-06-11T18:50:54.478Z</time>
</trkpt>
<trkpt lat="31.7902100" lon="35.0631100">
<ele>581.709961</ele>
<time>2024-06-11T18:50:54.478Z</time>
</trkpt>
<trkpt lat="31.7902100" lon="35.0630200">
<ele>582.590027</ele>
<time>2024-06-11T18:50:54.478Z</time>
</trkpt>
<trkpt lat="31.7901700" lon="35.0626800">
<ele>586.630005</ele>
<time>2024-06-11T18:50:54.479Z</time>
</trkpt>
<trkpt lat="31.7900900" lon="35.0623800">
<ele>586.809998</ele>
<time>2024-06-11T18:50:54.479Z</time>
</trkpt>
<trkpt lat="31.7899700" lon="35.0619500">
<ele>583.899963</ele>
<time>2024-06-11T18:50:54.479Z</time>
</trkpt>
<trkpt lat="31.7899100" lon="35.0614700">
<ele>586.580017</ele>
<time>2024-06-11T18:50:54.479Z</time>
</trkpt>
<trkpt lat="31.7898800" lon="35.0610000">
<ele>588.270020</ele>
<time>2024-06-11T18:50:54.479Z</time>
</trkpt>
<trkpt lat="31.7898100" lon="35.0606300">
<ele>587.070007</ele>
<time>2024-06-11T18:50:54.479Z</time>
</trkpt>
<trkpt lat="31.7897600" lon="35.0604300">
<ele>586.830017</ele>
<time>2024-06-11T18:50:54.479Z</time>
</trkpt>
<trkpt lat="31.7896800" lon="35.0601700">
<ele>589.020020</ele>
<time>2024-06-11T18:50:54.479Z</time>
</trkpt>
<trkpt lat="31.7895300" lon="35.0599100">
<ele>590.950012</ele>
<time>2024-06-11T18:50:54.479Z</time>
</trkpt>
<trkpt lat="31.7893300" lon="35.0597000">
<ele>589.650024</ele>
<time>2024-06-11T18:50:54.479Z</time>
</trkpt>
<trkpt lat="31.7888300" lon="35.0592100">
<ele>588.250000</ele>
<time>2024-06-11T18:50:54.479Z</time>
</trkpt>
<trkpt lat="31.7887700" lon="35.0591300">
<ele>586.670044</ele>
<time>2024-06-11T18:50:54.479Z</time>
</trkpt>
<trkpt lat="31.7886100" lon="35.0588200">
<ele>581.969971</ele>
<time>2024-06-11T18:50:54.479Z</time>
</trkpt>
<trkpt lat="31.7883200" lon="35.0580400">
<ele>581.790039</ele>
<time>2024-06-11T18:50:54.479Z</time>
</trkpt>
<trkpt lat="31.7882800" lon="35.0578300">
<ele>577.580017</ele>
<time>2024-06-11T18:50:54.479Z</time>
</trkpt>
<trkpt lat="31.7882100" lon="35.0570400">
<ele>573.390015</ele>
<time>2024-06-11T18:50:54.479Z</time>
</trkpt>
<trkpt lat="31.7881900" lon="35.0568100">
<ele>572.779968</ele>
<time>2024-06-11T18:50:54.479Z</time>
</trkpt>
<trkpt lat="31.7881900" lon="35.0566500">
<ele>572.079956</ele>
<time>2024-06-11T18:50:54.479Z</time>
</trkpt>
<trkpt lat="31.7881900" lon="35.0565600">
<ele>571.130005</ele>
<time>2024-06-11T18:50:54.479Z</time>
</trkpt>
<trkpt lat="31.7882000" lon="35.0564300">
<ele>570.179993</ele>
<time>2024-06-11T18:50:54.479Z</time>
</trkpt>
<trkpt lat="31.7883500" lon="35.0559400">
<ele>564.609985</ele>
<time>2024-06-11T18:50:54.479Z</time>
</trkpt>
<trkpt lat="31.7884100" lon="35.0555100">
<ele>558.960022</ele>
<time>2024-06-11T18:50:54.479Z</time>
</trkpt>
<trkpt lat="31.7884400" lon="35.0554400">
<ele>558.769958</ele>
<time>2024-06-11T18:50:54.479Z</time>
</trkpt>
<trkpt lat="31.7885600" lon="35.0552900">
<ele>558.609985</ele>
<time>2024-06-11T18:50:54.479Z</time>
</trkpt>
<trkpt lat="31.7887000" lon="35.0552400">
<ele>559.100037</ele>
<time>2024-06-11T18:50:54.479Z</time>
</trkpt>
<trkpt lat="31.7888200" lon="35.0552300">
<ele>559.820007</ele>
<time>2024-06-11T18:50:54.479Z</time>
</trkpt>
<trkpt lat="31.7889400" lon="35.0552300">
<ele>560.649963</ele>
<time>2024-06-11T18:50:54.479Z</time>
</trkpt>
<trkpt lat="31.7892000" lon="35.0552400">
<ele>562.729980</ele>
<time>2024-06-11T18:50:54.480Z</time>
</trkpt>
<trkpt lat="31.7896000" lon="35.0553200">
<ele>571.510010</ele>
<time>2024-06-11T18:50:54.480Z</time>
</trkpt>
<trkpt lat="31.7901200" lon="35.0553700">
<ele>578.900024</ele>
<time>2024-06-11T18:50:54.480Z</time>
</trkpt>
<trkpt lat="31.7902700" lon="35.0553800">
<ele>578.500000</ele>
<time>2024-06-11T18:50:54.480Z</time>
</trkpt>
<trkpt lat="31.7902900" lon="35.0552900">
<ele>577.440002</ele>
<time>2024-06-11T18:50:54.480Z</time>
</trkpt>
<trkpt lat="31.7902800" lon="35.0552300">
<ele>577.049988</ele>
<time>2024-06-11T18:50:54.480Z</time>
</trkpt>
<trkpt lat="31.7900100" lon="35.0548500">
<ele>577.750000</ele>
<time>2024-06-11T18:50:54.480Z</time>
</trkpt>
<trkpt lat="31.7896200" lon="35.0542600">
<ele>568.690002</ele>
<time>2024-06-11T18:50:54.480Z</time>
</trkpt>
<trkpt lat="31.7892800" lon="35.0536300">
<ele>559.940002</ele>
<time>2024-06-11T18:50:54.480Z</time>
</trkpt>
<trkpt lat="31.7892100" lon="35.0533300">
<ele>555.219971</ele>
<time>2024-06-11T18:50:54.480Z</time>
</trkpt>
<trkpt lat="31.7892200" lon="35.0530700">
<ele>553.640015</ele>
<time>2024-06-11T18:50:54.480Z</time>
</trkpt>
<trkpt lat="31.7892200" lon="35.0530000">
<ele>553.309998</ele>
<time>2024-06-11T18:50:54.480Z</time>
</trkpt>
<trkpt lat="31.7892800" lon="35.0528100">
<ele>553.100037</ele>
<time>2024-06-11T18:50:54.480Z</time>
</trkpt>
<trkpt lat="31.7893500" lon="35.0527300">
<ele>552.399963</ele>
<time>2024-06-11T18:50:54.480Z</time>
</trkpt>
<trkpt lat="31.7894800" lon="35.0526400">
<ele>551.330017</ele>
<time>2024-06-11T18:50:54.480Z</time>
</trkpt>
<trkpt lat="31.7896800" lon="35.0525400">
<ele>548.149963</ele>
<time>2024-06-11T18:50:54.480Z</time>
</trkpt>
<trkpt lat="31.7897400" lon="35.0525300">
<ele>547.580017</ele>
<time>2024-06-11T18:50:54.480Z</time>
</trkpt>
<trkpt lat="31.7901300" lon="35.0523700">
<ele>544.130005</ele>
<time>2024-06-11T18:50:54.480Z</time>
</trkpt>
<trkpt lat="31.7901900" lon="35.0523600">
<ele>544.339966</ele>
<time>2024-06-11T18:50:54.480Z</time>
</trkpt>
<trkpt lat="31.7904000" lon="35.0522700">
<ele>547.130005</ele>
<time>2024-06-11T18:50:54.480Z</time>
</trkpt>
<trkpt lat="31.7905300" lon="35.0522000">
<ele>551.440002</ele>
<time>2024-06-11T18:50:54.480Z</time>
</trkpt>
<trkpt lat="31.7905900" lon="35.0520800">
<ele>555.089966</ele>
<time>2024-06-11T18:50:54.480Z</time>
</trkpt>
<trkpt lat="31.7905600" lon="35.0519200">
<ele>556.450012</ele>
<time>2024-06-11T18:50:54.480Z</time>
</trkpt>
<trkpt lat="31.7904600" lon="35.0516800">
<ele>559.070007</ele>
<time>2024-06-11T18:50:54.481Z</time>
</trkpt>
<trkpt lat="31.7902100" lon="35.0511200">
<ele>562.959961</ele>
<time>2024-06-11T18:50:54.481Z</time>
</trkpt>
<trkpt lat="31.7901600" lon="35.0510300">
<ele>563.479980</ele>
<time>2024-06-11T18:50:54.481Z</time>
</trkpt>
<trkpt lat="31.7900200" lon="35.0509300">
<ele>562.090027</ele>
<time>2024-06-11T18:50:54.481Z</time>
</trkpt>
<trkpt lat="31.7895000" lon="35.0507700">
<ele>560.000000</ele>
<time>2024-06-11T18:50:54.481Z</time>
</trkpt>
<trkpt lat="31.7893000" lon="35.0506700">
<ele>557.220032</ele>
<time>2024-06-11T18:50:54.481Z</time>
</trkpt>
<trkpt lat="31.7890900" lon="35.0504300">
<ele>551.910034</ele>
<time>2024-06-11T18:50:54.481Z</time>
</trkpt>
<trkpt lat="31.7890400" lon="35.0502900">
<ele>549.049988</ele>
<time>2024-06-11T18:50:54.481Z</time>
</trkpt>
<trkpt lat="31.7889900" lon="35.0499200">
<ele>546.520020</ele>
<time>2024-06-11T18:50:54.481Z</time>
</trkpt>
<trkpt lat="31.7890000" lon="35.0496300">
<ele>545.669983</ele>
<time>2024-06-11T18:50:54.481Z</time>
</trkpt>
<trkpt lat="31.7890600" lon="35.0492300">
<ele>544.380005</ele>
<time>2024-06-11T18:50:54.481Z</time>
</trkpt>
<trkpt lat="31.7893700" lon="35.0484200">
<ele>544.219971</ele>
<time>2024-06-11T18:50:54.481Z</time>
</trkpt>
<trkpt lat="31.7894700" lon="35.0481700">
<ele>547.079956</ele>
<time>2024-06-11T18:50:54.481Z</time>
</trkpt>
<trkpt lat="31.7894900" lon="35.0480100">
<ele>548.890015</ele>
<time>2024-06-11T18:50:54.481Z</time>
</trkpt>
<trkpt lat="31.7894900" lon="35.0478000">
<ele>550.780029</ele>
<time>2024-06-11T18:50:54.481Z</time>
</trkpt>
<trkpt lat="31.7894600" lon="35.0476100">
<ele>553.289978</ele>
<time>2024-06-11T18:50:54.481Z</time>
</trkpt>
<trkpt lat="31.7893400" lon="35.0474100">
<ele>555.410034</ele>
<time>2024-06-11T18:50:54.481Z</time>
</trkpt>
<trkpt lat="31.7889200" lon="35.0469600">
<ele>564.390015</ele>
<time>2024-06-11T18:50:54.481Z</time>
</trkpt>
<trkpt lat="31.7884700" lon="35.0465500">
<ele>552.869995</ele>
<time>2024-06-11T18:50:54.481Z</time>
</trkpt>
<trkpt lat="31.7884500" lon="35.0465000">
<ele>551.750000</ele>
<time>2024-06-11T18:50:54.481Z</time>
</trkpt>
<trkpt lat="31.7884400" lon="35.0464300">
<ele>550.809998</ele>
<time>2024-06-11T18:50:54.481Z</time>
</trkpt>
<trkpt lat="31.7884500" lon="35.0463600">
<ele>550.530029</ele>
<time>2024-06-11T18:50:54.481Z</time>
</trkpt>
<trkpt lat="31.7884500" lon="35.0462300">
<ele>549.399963</ele>
<time>2024-06-11T18:50:54.481Z</time>
</trkpt>
<trkpt lat="31.7885100" lon="35.0459800">
<ele>545.760010</ele>
<time>2024-06-11T18:50:54.482Z</time>
</trkpt>
<trkpt lat="31.7885800" lon="35.0458300">
<ele>541.590027</ele>
<time>2024-06-11T18:50:54.482Z</time>
</trkpt>
<trkpt lat="31.7886600" lon="35.0457200">
<ele>540.080017</ele>
<time>2024-06-11T18:50:54.482Z</time>
</trkpt>
<trkpt lat="31.7890800" lon="35.0452300">
<ele>541.419983</ele>
<time>2024-06-11T18:50:54.482Z</time>
</trkpt>
<trkpt lat="31.7891800" lon="35.0450600">
<ele>542.960022</ele>
<time>2024-06-11T18:50:54.482Z</time>
</trkpt>
<trkpt lat="31.7892400" lon="35.0449400">
<ele>544.690002</ele>
<time>2024-06-11T18:50:54.482Z</time>
</trkpt>
<trkpt lat="31.7893000" lon="35.0447500">
<ele>546.380005</ele>
<time>2024-06-11T18:50:54.482Z</time>
</trkpt>
<trkpt lat="31.7893600" lon="35.0444700">
<ele>547.119995</ele>
<time>2024-06-11T18:50:54.482Z</time>
</trkpt>
<trkpt lat="31.7893600" lon="35.0444700">
<ele>547.119995</ele>
<time>2024-06-11T18:50:54.482Z</time>
</trkpt>
<trkpt lat="31.7893600" lon="35.0444700">
<ele>547.119995</ele>
<time>2024-06-11T18:50:54.482Z</time>
</trkpt>
<trkpt lat="31.7893800" lon="35.0443600">
<ele>546.979980</ele>
<time>2024-06-11T18:50:54.482Z</time>
</trkpt>
<trkpt lat="31.7895000" lon="35.0439500">
<ele>547.840027</ele>
<time>2024-06-11T18:50:54.482Z</time>
</trkpt>
<trkpt lat="31.7896400" lon="35.0435600">
<ele>549.980042</ele>
<time>2024-06-11T18:50:54.482Z</time>
</trkpt>
<trkpt lat="31.7896600" lon="35.0437400">
<ele>550.219971</ele>
<time>2024-06-11T18:50:54.482Z</time>
</trkpt>
<trkpt lat="31.7897100" lon="35.0438000">
<ele>550.840027</ele>
<time>2024-06-11T18:50:54.482Z</time>
</trkpt>
<trkpt lat="31.7897500" lon="35.0439700">
<ele>551.260010</ele>
<time>2024-06-11T18:50:54.482Z</time>
</trkpt>
<trkpt lat="31.7898000" lon="35.0440200">
<ele>551.340027</ele>
<time>2024-06-11T18:50:54.482Z</time>
</trkpt>
<trkpt lat="31.7898700" lon="35.0440600">
<ele>551.289978</ele>
<time>2024-06-11T18:50:54.482Z</time>
</trkpt>
<trkpt lat="31.7899700" lon="35.0440200">
<ele>551.049988</ele>
<time>2024-06-11T18:50:54.482Z</time>
</trkpt>
<trkpt lat="31.7901500" lon="35.0440000">
<ele>552.510010</ele>
<time>2024-06-11T18:50:54.482Z</time>
</trkpt>
<trkpt lat="31.7902300" lon="35.0439500">
<ele>553.020020</ele>
<time>2024-06-11T18:50:54.482Z</time>
</trkpt>
<trkpt lat="31.7903300" lon="35.0438900">
<ele>553.570007</ele>
<time>2024-06-11T18:50:54.482Z</time>
</trkpt>
<trkpt lat="31.7904700" lon="35.0438600">
<ele>555.290039</ele>
<time>2024-06-11T18:50:54.483Z</time>
</trkpt>
<trkpt lat="31.7910700" lon="35.0444300">
<ele>569.080017</ele>
<time>2024-06-11T18:50:54.483Z</time>
</trkpt>
<trkpt lat="31.7911700" lon="35.0444900">
<ele>571.210022</ele>
<time>2024-06-11T18:50:54.483Z</time>
</trkpt>
<trkpt lat="31.7914800" lon="35.0445800">
<ele>576.979980</ele>
<time>2024-06-11T18:50:54.483Z</time>
</trkpt>
<trkpt lat="31.7915600" lon="35.0446600">
<ele>577.210022</ele>
<time>2024-06-11T18:50:54.483Z</time>
</trkpt>
<trkpt lat="31.7916700" lon="35.0448900">
<ele>576.419983</ele>
<time>2024-06-11T18:50:54.483Z</time>
</trkpt>
<trkpt lat="31.7917700" lon="35.0450100">
<ele>576.690002</ele>
<time>2024-06-11T18:50:54.483Z</time>
</trkpt>
<trkpt lat="31.7918500" lon="35.0450500">
<ele>577.080017</ele>
<time>2024-06-11T18:50:54.483Z</time>
</trkpt>
<trkpt lat="31.7922300" lon="35.0449600">
<ele>579.979980</ele>
<time>2024-06-11T18:50:54.483Z</time>
</trkpt>
<trkpt lat="31.7922900" lon="35.0450000">
<ele>579.760010</ele>
<time>2024-06-11T18:50:54.483Z</time>
</trkpt>
<trkpt lat="31.7923500" lon="35.0450600">
<ele>579.460022</ele>
<time>2024-06-11T18:50:54.483Z</time>
</trkpt>
<trkpt lat="31.7923800" lon="35.0451500">
<ele>579.049988</ele>
<time>2024-06-11T18:50:54.483Z</time>
</trkpt>
<trkpt lat="31.7924100" lon="35.0456900">
<ele>578.630005</ele>
<time>2024-06-11T18:50:54.483Z</time>
</trkpt>
<trkpt lat="31.7924600" lon="35.0458100">
<ele>579.000000</ele>
<time>2024-06-11T18:50:54.483Z</time>
</trkpt>
<trkpt lat="31.7925000" lon="35.0458600">
<ele>579.289978</ele>
<time>2024-06-11T18:50:54.483Z</time>
</trkpt>
<trkpt lat="31.7925600" lon="35.0459100">
<ele>578.840027</ele>
<time>2024-06-11T18:50:54.483Z</time>
</trkpt>
<trkpt lat="31.7927500" lon="35.0459800">
<ele>576.029968</ele>
<time>2024-06-11T18:50:54.483Z</time>
</trkpt>
<trkpt lat="31.7931200" lon="35.0461400">
<ele>571.570007</ele>
<time>2024-06-11T18:50:54.483Z</time>
</trkpt>
<trkpt lat="31.7932600" lon="35.0461900">
<ele>572.799988</ele>
<time>2024-06-11T18:50:54.483Z</time>
</trkpt>
<trkpt lat="31.7931800" lon="35.0460200">
<ele>571.010010</ele>
<time>2024-06-11T18:50:54.484Z</time>
</trkpt>
<trkpt lat="31.7930300" lon="35.0457900">
<ele>571.340027</ele>
<time>2024-06-11T18:50:54.484Z</time>
</trkpt>
<trkpt lat="31.7929800" lon="35.0456700">
<ele>571.770020</ele>
<time>2024-06-11T18:50:54.484Z</time>
</trkpt>
<trkpt lat="31.7929600" lon="35.0454600">
<ele>570.549988</ele>
<time>2024-06-11T18:50:54.484Z</time>
</trkpt>
<trkpt lat="31.7930000" lon="35.0453000">
<ele>568.090027</ele>
<time>2024-06-11T18:50:54.484Z</time>
</trkpt>
<trkpt lat="31.7930300" lon="35.0452700">
<ele>567.400024</ele>
<time>2024-06-11T18:50:54.484Z</time>
</trkpt>
<trkpt lat="31.7930300" lon="35.0452700">
<ele>567.400024</ele>
<time>2024-06-11T18:50:54.484Z</time>
</trkpt>
<trkpt lat="31.7930300" lon="35.0452700">
<ele>567.400024</ele>
<time>2024-06-11T18:50:54.484Z</time>
</trkpt>
<trkpt lat="31.7930800" lon="35.0452200">
<ele>566.210022</ele>
<time>2024-06-11T18:50:54.484Z</time>
</trkpt>
<trkpt lat="31.7931200" lon="35.0452200">
<ele>564.570007</ele>
<time>2024-06-11T18:50:54.484Z</time>
</trkpt>
<trkpt lat="31.7934800" lon="35.0452200">
<ele>552.859985</ele>
<time>2024-06-11T18:50:54.484Z</time>
</trkpt>
<trkpt lat="31.7936500" lon="35.0452600">
<ele>548.799988</ele>
<time>2024-06-11T18:50:54.484Z</time>
</trkpt>
<trkpt lat="31.7937600" lon="35.0452500">
<ele>545.279968</ele>
<time>2024-06-11T18:50:54.484Z</time>
</trkpt>
<trkpt lat="31.7938400" lon="35.0452200">
<ele>542.790039</ele>
<time>2024-06-11T18:50:54.484Z</time>
</trkpt>
<trkpt lat="31.7941300" lon="35.0451000">
<ele>539.660034</ele>
<time>2024-06-11T18:50:54.484Z</time>
</trkpt>
<trkpt lat="31.7942300" lon="35.0450800">
<ele>538.830017</ele>
<time>2024-06-11T18:50:54.484Z</time>
</trkpt>
<trkpt lat="31.7945600" lon="35.0449200">
<ele>536.010010</ele>
<time>2024-06-11T18:50:54.484Z</time>
</trkpt>
<trkpt lat="31.7947400" lon="35.0447800">
<ele>534.390015</ele>
<time>2024-06-11T18:50:54.484Z</time>
</trkpt>
<trkpt lat="31.7951400" lon="35.0443600">
<ele>527.700012</ele>
<time>2024-06-11T18:50:54.484Z</time>
</trkpt>
<trkpt lat="31.7952800" lon="35.0441700">
<ele>528.029968</ele>
<time>2024-06-11T18:50:54.484Z</time>
</trkpt>
<trkpt lat="31.7954200" lon="35.0438800">
<ele>522.540039</ele>
<time>2024-06-11T18:50:54.484Z</time>
</trkpt>
<trkpt lat="31.7954900" lon="35.0437800">
<ele>522.540039</ele>
<time>2024-06-11T18:50:54.484Z</time>
</trkpt>
<trkpt lat="31.7955700" lon="35.0437000">
<ele>521.640015</ele>
<time>2024-06-11T18:50:54.484Z</time>
</trkpt>
<trkpt lat="31.7958800" lon="35.0434100">
<ele>517.200012</ele>
<time>2024-06-11T18:50:54.484Z</time>
</trkpt>
<trkpt lat="31.7962400" lon="35.0430600">
<ele>513.940002</ele>
<time>2024-06-11T18:50:54.484Z</time>
</trkpt>
<trkpt lat="31.7963400" lon="35.0429300">
<ele>513.429993</ele>
<time>2024-06-11T18:50:54.485Z</time>
</trkpt>
<trkpt lat="31.7965200" lon="35.0426700">
<ele>512.900024</ele>
<time>2024-06-11T18:50:54.485Z</time>
</trkpt>
<trkpt lat="31.7966900" lon="35.0423500">
<ele>509.990021</ele>
<time>2024-06-11T18:50:54.485Z</time>
</trkpt>
<trkpt lat="31.7968400" lon="35.0420200">
<ele>506.559998</ele>
<time>2024-06-11T18:50:54.485Z</time>
</trkpt>
<trkpt lat="31.7969300" lon="35.0418300">
<ele>503.929993</ele>
<time>2024-06-11T18:50:54.485Z</time>
</trkpt>
<trkpt lat="31.7976300" lon="35.0409700">
<ele>501.119995</ele>
<time>2024-06-11T18:50:54.485Z</time>
</trkpt>
<trkpt lat="31.7979100" lon="35.0405300">
<ele>499.640015</ele>
<time>2024-06-11T18:50:54.485Z</time>
</trkpt>
<trkpt lat="31.7987300" lon="35.0393500">
<ele>487.500000</ele>
<time>2024-06-11T18:50:54.485Z</time>
</trkpt>
<trkpt lat="31.7989100" lon="35.0390400">
<ele>480.949982</ele>
<time>2024-06-11T18:50:54.485Z</time>
</trkpt>
<trkpt lat="31.7990800" lon="35.0388200">
<ele>479.690002</ele>
<time>2024-06-11T18:50:54.485Z</time>
</trkpt>
<trkpt lat="31.7991600" lon="35.0386800">
<ele>478.020020</ele>
<time>2024-06-11T18:50:54.485Z</time>
</trkpt>
<trkpt lat="31.7992400" lon="35.0384400">
<ele>479.269989</ele>
<time>2024-06-11T18:50:54.485Z</time>
</trkpt>
<trkpt lat="31.7994500" lon="35.0380000">
<ele>478.589996</ele>
<time>2024-06-11T18:50:54.485Z</time>
</trkpt>
<trkpt lat="31.7996500" lon="35.0375000">
<ele>476.480011</ele>
<time>2024-06-11T18:50:54.485Z</time>
</trkpt>
<trkpt lat="31.7998100" lon="35.0372200">
<ele>475.859985</ele>
<time>2024-06-11T18:50:54.485Z</time>
</trkpt>
<trkpt lat="31.8001500" lon="35.0366700">
<ele>471.750000</ele>
<time>2024-06-11T18:50:54.485Z</time>
</trkpt>
<trkpt lat="31.8004400" lon="35.0360900">
<ele>469.360016</ele>
<time>2024-06-11T18:50:54.485Z</time>
</trkpt>
<trkpt lat="31.8004800" lon="35.0359700">
<ele>471.200012</ele>
<time>2024-06-11T18:50:54.485Z</time>
</trkpt>
<trkpt lat="31.8004900" lon="35.0358400">
<ele>472.079987</ele>
<time>2024-06-11T18:50:54.485Z</time>
</trkpt>
<trkpt lat="31.8004500" lon="35.0355900">
<ele>472.079987</ele>
<time>2024-06-11T18:50:54.485Z</time>
</trkpt>
<trkpt lat="31.8004400" lon="35.0353400">
<ele>471.390015</ele>
<time>2024-06-11T18:50:54.485Z</time>
</trkpt>
<trkpt lat="31.8004000" lon="35.0351800">
<ele>470.179993</ele>
<time>2024-06-11T18:50:54.485Z</time>
</trkpt>
<trkpt lat="31.8003300" lon="35.0350900">
<ele>469.019989</ele>
<time>2024-06-11T18:50:54.485Z</time>
</trkpt>
<trkpt lat="31.8001600" lon="35.0350300">
<ele>470.579987</ele>
<time>2024-06-11T18:50:54.485Z</time>
</trkpt>
<trkpt lat="31.7999700" lon="35.0349000">
<ele>474.800018</ele>
<time>2024-06-11T18:50:54.485Z</time>
</trkpt>
<trkpt lat="31.7998100" lon="35.0347300">
<ele>477.269989</ele>
<time>2024-06-11T18:50:54.485Z</time>
</trkpt>
<trkpt lat="31.7994000" lon="35.0342600">
<ele>480.110016</ele>
<time>2024-06-11T18:50:54.486Z</time>
</trkpt>
<trkpt lat="31.7993200" lon="35.0341900">
<ele>480.410004</ele>
<time>2024-06-11T18:50:54.486Z</time>
</trkpt>
<trkpt lat="31.7991900" lon="35.0341000">
<ele>480.619995</ele>
<time>2024-06-11T18:50:54.486Z</time>
</trkpt>
<trkpt lat="31.7990600" lon="35.0339600">
<ele>480.350006</ele>
<time>2024-06-11T18:50:54.486Z</time>
</trkpt>
<trkpt lat="31.7989900" lon="35.0338100">
<ele>479.540009</ele>
<time>2024-06-11T18:50:54.486Z</time>
</trkpt>
<trkpt lat="31.7988600" lon="35.0333800">
<ele>478.069977</ele>
<time>2024-06-11T18:50:54.486Z</time>
</trkpt>
<trkpt lat="31.7988800" lon="35.0327800">
<ele>471.099976</ele>
<time>2024-06-11T18:50:54.486Z</time>
</trkpt>
<trkpt lat="31.7989300" lon="35.0326700">
<ele>470.799988</ele>
<time>2024-06-11T18:50:54.486Z</time>
</trkpt>
<trkpt lat="31.7989900" lon="35.0326300">
<ele>469.839996</ele>
<time>2024-06-11T18:50:54.486Z</time>
</trkpt>
<trkpt lat="31.7992400" lon="35.0326300">
<ele>465.269989</ele>
<time>2024-06-11T18:50:54.486Z</time>
</trkpt>
<trkpt lat="31.7993800" lon="35.0325700">
<ele>461.020020</ele>
<time>2024-06-11T18:50:54.486Z</time>
</trkpt>
<trkpt lat="31.7995500" lon="35.0324200">
<ele>455.750000</ele>
<time>2024-06-11T18:50:54.486Z</time>
</trkpt>
<trkpt lat="31.7996900" lon="35.0324400">
<ele>454.839996</ele>
<time>2024-06-11T18:50:54.486Z</time>
</trkpt>
<trkpt lat="31.7997500" lon="35.0324100">
<ele>453.989990</ele>
<time>2024-06-11T18:50:54.486Z</time>
</trkpt>
<trkpt lat="31.7998400" lon="35.0323300">
<ele>451.990021</ele>
<time>2024-06-11T18:50:54.486Z</time>
</trkpt>
<trkpt lat="31.7999600" lon="35.0321700">
<ele>447.670013</ele>
<time>2024-06-11T18:50:54.486Z</time>
</trkpt>
<trkpt lat="31.8001300" lon="35.0320200">
<ele>442.779999</ele>
<time>2024-06-11T18:50:54.486Z</time>
</trkpt>
<trkpt lat="31.8002300" lon="35.0319000">
<ele>441.120026</ele>
<time>2024-06-11T18:50:54.486Z</time>
</trkpt>
<trkpt lat="31.8003200" lon="35.0317200">
<ele>440.600006</ele>
<time>2024-06-11T18:50:54.486Z</time>
</trkpt>
<trkpt lat="31.8003700" lon="35.0315600">
<ele>439.159973</ele>
<time>2024-06-11T18:50:54.486Z</time>
</trkpt>
<trkpt lat="31.8004800" lon="35.0309400">
<ele>434.100006</ele>
<time>2024-06-11T18:50:54.486Z</time>
</trkpt>
<trkpt lat="31.8005800" lon="35.0305800">
<ele>431.250000</ele>
<time>2024-06-11T18:50:54.486Z</time>
</trkpt>
<trkpt lat="31.8006600" lon="35.0300800">
<ele>426.799988</ele>
<time>2024-06-11T18:50:54.486Z</time>
</trkpt>
<trkpt lat="31.8007200" lon="35.0298700">
<ele>424.320007</ele>
<time>2024-06-11T18:50:54.486Z</time>
</trkpt>
<trkpt lat="31.8008200" lon="35.0296500">
<ele>421.750000</ele>
<time>2024-06-11T18:50:54.486Z</time>
</trkpt>
<trkpt lat="31.8009800" lon="35.0293700">
<ele>420.190002</ele>
<time>2024-06-11T18:50:54.486Z</time>
</trkpt>
<trkpt lat="31.8017700" lon="35.0283300">
<ele>406.820007</ele>
<time>2024-06-11T18:50:54.486Z</time>
</trkpt>
<trkpt lat="31.8020200" lon="35.0279400">
<ele>399.770020</ele>
<time>2024-06-11T18:50:54.487Z</time>
</trkpt>
<trkpt lat="31.8021800" lon="35.0276900">
<ele>394.979980</ele>
<time>2024-06-11T18:50:54.487Z</time>
</trkpt>
<trkpt lat="31.8024000" lon="35.0274000">
<ele>396.440002</ele>
<time>2024-06-11T18:50:54.487Z</time>
</trkpt>
<trkpt lat="31.8024700" lon="35.0273200">
<ele>397.500031</ele>
<time>2024-06-11T18:50:54.487Z</time>
</trkpt>
<trkpt lat="31.8025400" lon="35.0272200">
<ele>397.399994</ele>
<time>2024-06-11T18:50:54.487Z</time>
</trkpt>
<trkpt lat="31.8026200" lon="35.0269800">
<ele>393.660004</ele>
<time>2024-06-11T18:50:54.487Z</time>
</trkpt>
<trkpt lat="31.8026800" lon="35.0266500">
<ele>387.189972</ele>
<time>2024-06-11T18:50:54.487Z</time>
</trkpt>
<trkpt lat="31.8027200" lon="35.0264900">
<ele>384.419983</ele>
<time>2024-06-11T18:50:54.487Z</time>
</trkpt>
<trkpt lat="31.8027800" lon="35.0263400">
<ele>381.260010</ele>
<time>2024-06-11T18:50:54.487Z</time>
</trkpt>
<trkpt lat="31.8029200" lon="35.0262000">
<ele>377.420013</ele>
<time>2024-06-11T18:50:54.487Z</time>
</trkpt>
<trkpt lat="31.8031700" lon="35.0260300">
<ele>376.650024</ele>
<time>2024-06-11T18:50:54.487Z</time>
</trkpt>
<trkpt lat="31.8033700" lon="35.0259000">
<ele>378.220001</ele>
<time>2024-06-11T18:50:54.487Z</time>
</trkpt>
<trkpt lat="31.8034200" lon="35.0258700">
<ele>377.790009</ele>
<time>2024-06-11T18:50:54.487Z</time>
</trkpt>
<trkpt lat="31.8038800" lon="35.0255400">
<ele>371.959991</ele>
<time>2024-06-11T18:50:54.487Z</time>
</trkpt>
<trkpt lat="31.8040700" lon="35.0254500">
<ele>371.080017</ele>
<time>2024-06-11T18:50:54.487Z</time>
</trkpt>
<trkpt lat="31.8042300" lon="35.0253500">
<ele>369.290009</ele>
<time>2024-06-11T18:50:54.487Z</time>
</trkpt>
<trkpt lat="31.8045100" lon="35.0250900">
<ele>363.129974</ele>
<time>2024-06-11T18:50:54.487Z</time>
</trkpt>
<trkpt lat="31.8046300" lon="35.0250000">
<ele>361.329987</ele>
<time>2024-06-11T18:50:54.487Z</time>
</trkpt>
<trkpt lat="31.8047300" lon="35.0249500">
<ele>360.009979</ele>
<time>2024-06-11T18:50:54.487Z</time>
</trkpt>
<trkpt lat="31.8048600" lon="35.0248900">
<ele>359.709991</ele>
<time>2024-06-11T18:50:54.487Z</time>
</trkpt>
<trkpt lat="31.8050800" lon="35.0247400">
<ele>357.269989</ele>
<time>2024-06-11T18:50:54.487Z</time>
</trkpt>
<trkpt lat="31.8052600" lon="35.0245700">
<ele>355.599976</ele>
<time>2024-06-11T18:50:54.487Z</time>
</trkpt>
<trkpt lat="31.8054000" lon="35.0244900">
<ele>353.539978</ele>
<time>2024-06-11T18:50:54.487Z</time>
</trkpt>
<trkpt lat="31.8056800" lon="35.0243000">
<ele>350.620026</ele>
<time>2024-06-11T18:50:54.487Z</time>
</trkpt>
<trkpt lat="31.8060800" lon="35.0241300">
<ele>344.039978</ele>
<time>2024-06-11T18:50:54.487Z</time>
</trkpt>
<trkpt lat="31.8061500" lon="35.0241200">
<ele>343.239990</ele>
<time>2024-06-11T18:50:54.487Z</time>
</trkpt>
<trkpt lat="31.8063600" lon="35.0240800">
<ele>341.550018</ele>
<time>2024-06-11T18:50:54.488Z</time>
</trkpt>
<trkpt lat="31.8064900" lon="35.0240300">
<ele>340.290009</ele>
<time>2024-06-11T18:50:54.488Z</time>
</trkpt>
<trkpt lat="31.8067700" lon="35.0237700">
<ele>337.099976</ele>
<time>2024-06-11T18:50:54.488Z</time>
</trkpt>
<trkpt lat="31.8070100" lon="35.0236300">
<ele>333.379974</ele>
<time>2024-06-11T18:50:54.488Z</time>
</trkpt>
<trkpt lat="31.8073300" lon="35.0234000">
<ele>326.010010</ele>
<time>2024-06-11T18:50:54.488Z</time>
</trkpt>
<trkpt lat="31.8075500" lon="35.0231800">
<ele>318.609985</ele>
<time>2024-06-11T18:50:54.488Z</time>
</trkpt>
<trkpt lat="31.8077100" lon="35.0229800">
<ele>315.000000</ele>
<time>2024-06-11T18:50:54.488Z</time>
</trkpt>
<trkpt lat="31.8080200" lon="35.0227300">
<ele>312.339996</ele>
<time>2024-06-11T18:50:54.488Z</time>
</trkpt>
<trkpt lat="31.8083500" lon="35.0224800">
<ele>312.080017</ele>
<time>2024-06-11T18:50:54.488Z</time>
</trkpt>
<trkpt lat="31.8087100" lon="35.0221400">
<ele>307.970001</ele>
<time>2024-06-11T18:50:54.488Z</time>
</trkpt>
<trkpt lat="31.8088000" lon="35.0220300">
<ele>307.190002</ele>
<time>2024-06-11T18:50:54.488Z</time>
</trkpt>
<trkpt lat="31.8089500" lon="35.0218300">
<ele>305.220001</ele>
<time>2024-06-11T18:50:54.488Z</time>
</trkpt>
<trkpt lat="31.8091100" lon="35.0215800">
<ele>302.820007</ele>
<time>2024-06-11T18:50:54.488Z</time>
</trkpt>
<trkpt lat="31.8092100" lon="35.0213700">
<ele>302.609985</ele>
<time>2024-06-11T18:50:54.488Z</time>
</trkpt>
<trkpt lat="31.8092500" lon="35.0211700">
<ele>302.959991</ele>
<time>2024-06-11T18:50:54.488Z</time>
</trkpt>
<trkpt lat="31.8093100" lon="35.0209900">
<ele>305.049988</ele>
<time>2024-06-11T18:50:54.488Z</time>
</trkpt>
<trkpt lat="31.8095200" lon="35.0201600">
<ele>308.550018</ele>
<time>2024-06-11T18:50:54.488Z</time>
</trkpt>
<trkpt lat="31.8095100" lon="35.0200100">
<ele>308.690002</ele>
<time>2024-06-11T18:50:54.488Z</time>
</trkpt>
<trkpt lat="31.8094200" lon="35.0199100">
<ele>306.320007</ele>
<time>2024-06-11T18:50:54.488Z</time>
</trkpt>
<trkpt lat="31.8090000" lon="35.0196700">
<ele>308.799988</ele>
<time>2024-06-11T18:50:54.488Z</time>
</trkpt>
<trkpt lat="31.8091900" lon="35.0191500">
<ele>304.350006</ele>
<time>2024-06-11T18:50:54.488Z</time>
</trkpt>
<trkpt lat="31.8093100" lon="35.0188200">
<ele>299.520020</ele>
<time>2024-06-11T18:50:54.488Z</time>
</trkpt>
<trkpt lat="31.8094800" lon="35.0182500">
<ele>292.010010</ele>
<time>2024-06-11T18:50:54.488Z</time>
</trkpt>
<trkpt lat="31.8095800" lon="35.0179700">
<ele>289.699982</ele>
<time>2024-06-11T18:50:54.488Z</time>
</trkpt>
<trkpt lat="31.8096400" lon="35.0177100">
<ele>288.350006</ele>
<time>2024-06-11T18:50:54.488Z</time>
</trkpt>
<trkpt lat="31.8097000" lon="35.0174500">
<ele>286.980011</ele>
<time>2024-06-11T18:50:54.488Z</time>
</trkpt>
<trkpt lat="31.8097200" lon="35.0173300">
<ele>286.399994</ele>
<time>2024-06-11T18:50:54.489Z</time>
</trkpt>
<trkpt lat="31.8098200" lon="35.0170700">
<ele>286.190002</ele>
<time>2024-06-11T18:50:54.489Z</time>
</trkpt>
<trkpt lat="31.8100100" lon="35.0165600">
<ele>284.130005</ele>
<time>2024-06-11T18:50:54.489Z</time>
</trkpt>
<trkpt lat="31.8101500" lon="35.0161200">
<ele>284.570007</ele>
<time>2024-06-11T18:50:54.489Z</time>
</trkpt>
<trkpt lat="31.8102800" lon="35.0157800">
<ele>283.200012</ele>
<time>2024-06-11T18:50:54.489Z</time>
</trkpt>
<trkpt lat="31.8103500" lon="35.0154900">
<ele>284.700012</ele>
<time>2024-06-11T18:50:54.489Z</time>
</trkpt>
<trkpt lat="31.8104700" lon="35.0151900">
<ele>285.110016</ele>
<time>2024-06-11T18:50:54.489Z</time>
</trkpt>
<trkpt lat="31.8105300" lon="35.0149400">
<ele>283.160004</ele>
<time>2024-06-11T18:50:54.489Z</time>
</trkpt>
<trkpt lat="31.8109800" lon="35.0141200">
<ele>276.490021</ele>
<time>2024-06-11T18:50:54.489Z</time>
</trkpt>
<trkpt lat="31.8112900" lon="35.0136100">
<ele>275.929993</ele>
<time>2024-06-11T18:50:54.489Z</time>
</trkpt>
<trkpt lat="31.8113000" lon="35.0135900">
<ele>276.010010</ele>
<time>2024-06-11T18:50:54.489Z</time>
</trkpt>
<trkpt lat="31.8112900" lon="35.0135900">
<ele>275.919983</ele>
<time>2024-06-11T18:50:54.489Z</time>
</trkpt>
</trkseg>
</trk>
</gpx>
